GFSMA_sfc_wetblb_105.txt.gz
Wetbulb
73.74 73.72 73.38 73.43 73.51 73.40 74.58 75.08 74.98 75.10 75.09 74.70 75.52 75.05 75.53 75.11 73.72 74.23 73.68 72.33 73.95 74.71 74.84 73.49 73.32 73.46 73.70 73.97 74.01 74.39 74.47 74.53 74.56 74.68 74.75 74.84 75.01 74.98 74.93 75.05 74.98 75.05 75.04
74.07 73.34 72.11 73.04 72.53 73.95 74.54 75.53 75.83 75.35 73.69 74.42 74.74 75.23 75.38 75.25 74.09 74.32 74.86 75.06 73.45 73.56 73.70 74.45 74.57 74.75 74.87 74.69 74.78 74.73 74.77 74.94 75.22 75.48 75.80 76.15 76.13 75.85 75.59 75.69 75.77 75.62 76.06
73.91 74.20 73.61 73.76 74.46 75.79 76.04 76.37 76.34 74.83 74.11 74.42 74.38 75.30 75.69 75.29 74.40 73.93 75.20 75.33 75.27 73.18 74.02 74.64 74.73 74.94 75.11 75.28 75.58 75.96 76.59 76.88 76.47 76.70 77.32 77.22 77.19 76.94 76.89 76.87 76.64 76.84 76.66
74.15 73.93 74.02 73.94 75.00 76.05 76.50 75.76 74.89 73.64 74.04 74.28 74.52 74.76 75.40 75.10 75.10 74.53 75.11 75.21 75.64 75.11 74.47 73.43 73.77 74.53 75.23 75.89 76.56 77.06 77.85 77.89 77.90 77.80 77.57 77.60 77.72 77.40 77.17 77.04 77.09 77.01 77.03
75.61 75.14 74.49 74.94 75.84 75.33 75.88 75.36 75.02 75.39 74.80 74.08 74.22 74.94 75.06 74.39 74.77 74.56 75.08 75.58 75.54 75.14 75.79 75.71 72.99 73.44 74.37 75.20 76.14 76.74 77.62 77.87 77.80 77.75 77.62 77.70 77.60 77.35 76.99 76.94 76.61 76.53 76.52
76.08 75.68 75.49 76.07 76.57 75.06 75.32 75.75 75.35 75.26 75.11 74.11 72.79 73.94 75.21 75.95 76.20 75.54 75.05 75.51 76.13 75.42 75.72 75.56 76.00 76.47 73.88 74.09 75.13 75.56 76.21 77.43 77.90 78.03 77.93 77.70 77.37 77.02 76.72 76.11 75.88 76.07 76.02
75.93 75.66 76.32 76.40 76.00 75.25 75.65 76.23 75.87 74.82 73.63 74.54 73.98 74.67 74.47 74.78 75.15 75.04 75.27 75.06 75.38 76.14 76.20 76.16 76.38 76.47 76.62 75.27 75.01 75.03 75.93 76.66 77.78 77.84 77.92 77.37 77.14 76.74 76.06 75.68 75.38 75.67 75.87
75.75 75.68 76.72 76.27 76.62 75.59 76.59 76.34 75.29 73.85 74.29 74.70 72.69 73.13 69.88 71.10 73.98 74.18 74.64 74.63 75.35 75.99 75.89 75.68 75.86 76.65 77.02 76.91 77.29 75.68 76.11 75.96 76.05 77.46 77.91 77.52 76.97 76.77 76.16 75.76 75.27 75.23 75.45
74.92 75.72 75.93 76.49 76.93 76.74 75.03 75.90 75.58 74.90 73.01 74.35 74.74 72.65 70.21 67.90 71.67 73.16 73.35 74.22 74.86 75.79 75.77 75.87 75.23 75.61 76.91 76.91 76.88 76.73 75.75 74.56 75.27 77.33 77.58 77.29 76.76 76.54 76.46 76.34 75.76 75.46 75.40
75.35 75.37 75.90 76.09 76.57 76.14 76.15 76.62 76.55 75.97 76.04 73.56 75.10 74.11 74.44 73.61 71.04 68.99 72.81 73.30 73.92 73.56 74.11 74.45 74.57 75.26 76.31 76.25 76.88 75.23 73.68 73.54 75.14 76.09 76.86 76.80 76.46 76.74 77.19 77.14 76.76 76.03 75.73
76.45 75.70 75.87 76.11 75.98 75.55 76.42 77.20 76.57 76.89 76.02 74.70 74.12 74.97 74.73 74.45 74.03 71.64 69.25 71.14 73.49 73.93 75.38 75.64 75.25 75.66 76.73 77.40 77.05 76.25 74.22 74.23 74.03 74.36 74.31 74.51 75.33 76.13 76.55 77.19 77.42 76.99 76.64
77.20 76.50 76.46 76.01 76.49 76.09 75.68 76.34 77.41 76.42 76.31 75.89 75.63 75.16 73.54 72.48 72.32 72.20 70.91 72.29 71.56 73.48 75.42 76.80 77.02 76.94 77.38 77.27 77.20 74.92 75.39 73.51 72.23 71.89 71.99 72.75 73.69 73.98 75.21 75.82 76.22 76.81 76.80
75.13 76.83 77.25 75.89 75.01 76.40 75.90 76.37 76.72 77.14 76.93 76.15 76.23 74.64 75.68 74.95 75.24 74.61 73.12 71.68 71.41 73.15 74.64 76.36 76.99 77.17 76.59 77.74 77.66 74.70 75.30 71.76 70.69 69.76 70.04 70.75 71.41 72.47 73.66 74.11 74.56 75.64 75.54
76.64 76.87 77.42 77.32 76.20 76.01 75.71 75.83 75.96 76.34 76.65 76.71 75.54 76.43 75.81 76.25 75.86 75.07 74.04 72.50 71.13 72.38 73.58 73.31 77.02 76.29 76.67 77.06 77.14 75.05 76.61 70.80 70.21 69.31 68.59 68.84 69.41 70.41 71.40 71.80 72.22 73.08 73.23
75.41 76.54 76.90 76.85 76.85 76.67 76.00 75.90 75.65 76.11 76.76 76.79 76.59 76.62 75.43 76.15 76.66 76.69 75.64 74.38 72.13 68.81 70.04 73.66 72.90 76.58 76.45 76.51 76.92 77.57 78.15 71.95 70.63 69.40 68.18 67.64 68.36 69.42 69.84 70.21 69.81 70.58 71.60
76.32 75.97 76.27 76.64 76.69 76.89 76.97 76.72 77.02 77.07 76.66 76.18 76.04 75.95 76.31 76.15 76.11 76.19 75.91 75.34 74.17 71.77 68.84 73.66 73.42 75.46 76.50 75.83 75.74 77.49 77.65 72.59 71.78 69.50 68.00 67.37 67.38 68.54 69.05 69.04 68.48 68.46 70.46
75.72 75.53 75.79 75.64 76.05 76.42 76.88 76.91 76.69 76.81 76.31 76.34 76.12 76.02 75.92 76.91 75.17 75.56 76.11 75.94 74.53 73.90 70.74 71.86 74.50 75.79 76.80 77.08 77.39 78.16 77.42 76.89 75.30 69.90 68.29 67.37 66.79 67.11 67.80 67.74 67.40 66.78 68.91
76.17 76.08 76.19 76.34 76.62 76.43 76.75 76.84 76.02 75.98 75.91 75.54 75.59 75.71 75.59 75.16 75.67 76.17 75.16 75.75 74.66 75.33 73.13 72.86 75.08 75.18 76.50 77.78 77.87 78.10 76.56 76.90 77.68 72.21 68.15 66.97 66.51 66.71 66.15 65.86 65.17 64.83 66.15
76.26 76.06 75.21 75.74 76.21 76.43 76.41 76.65 76.77 76.40 76.26 75.99 76.01 75.45 75.32 75.82 75.77 75.79 76.08 75.22 74.57 75.09 74.99 73.85 73.89 75.61 76.18 76.88 77.11 77.79 77.65 78.29 77.06 72.51 69.45 68.81 68.07 67.36 66.63 65.02 64.16 63.48 63.19
76.17 75.91 75.55 75.28 75.41 75.30 74.70 74.95 74.95 75.18 75.92 75.74 76.34 76.33 76.26 75.87 75.67 76.33 75.48 76.32 76.59 76.38 76.12 75.02 74.05 74.15 74.92 76.90 76.23 74.82 74.39 75.96 75.66 76.32 73.57 70.97 68.71 69.36 67.71 66.15 65.80 65.73 61.81
74.30 75.58 75.65 75.53 75.32 73.95 73.69 74.40 74.71 74.79 74.57 75.40 76.32 76.45 77.10 75.00 70.64 72.33 76.00 77.35 76.50 75.86 73.77 72.61 72.96 73.51 73.58 73.48 73.66 74.67 74.13 74.62 75.61 75.51 75.49 75.60 75.85 76.58 75.75 71.28 71.70 68.52 64.07
72.30 73.53 74.22 74.73 74.28 73.68 63.35 65.00 70.69 75.73 76.41 76.37 76.16 77.05 77.38 73.46 72.62 67.02 66.96 67.14 71.29 75.81 76.21 75.66 74.61 73.22 74.96 75.01 74.79 74.34 74.12 72.91 71.17 75.72 75.63 74.55 76.24 75.76 76.43 76.21 66.50 64.75 63.81
70.52 70.52 71.54 72.64 72.29 69.87 60.71 61.78 65.69 75.32 75.32 75.33 75.60 75.47 75.59 75.59 73.99 75.88 70.86 67.63 67.43 65.31 67.74 75.67 74.85 75.58 75.42 76.17 76.25 75.33 74.95 74.21 73.57 75.12 75.47 73.31 75.88 75.15 76.69 76.04 66.40 63.94 63.16
67.74 69.26 70.77 71.40 67.11 62.77 58.02 60.01 63.99 74.41 74.21 73.23 73.08 72.95 72.95 70.40 64.17 66.35 73.14 74.80 75.87 76.76 76.98 75.62 75.87 75.94 76.70 77.13 76.80 76.52 75.62 75.04 75.32 75.75 77.98 72.69 75.42 74.93 76.69 77.04 68.98 65.08 62.95
65.52 68.47 69.14 66.27 62.81 59.48 54.49 56.43 64.55 67.68 67.59 67.79 68.91 66.90 66.30 64.30 60.42 59.86 68.59 69.72 71.88 74.40 70.40 65.55 64.05 62.77 62.67 62.78 66.11 72.74 73.17 73.10 72.67 73.57 76.32 74.37 74.83 74.58 75.60 75.78 76.26 64.58 61.55
61.77 59.85 59.78 59.39 55.56 55.87 51.92 52.85 59.42 63.81 63.55 64.30 65.35 66.32 61.07 59.87 55.30 55.81 63.65 64.75 64.90 68.03 69.53 70.48 72.55 72.33 69.43 73.37 64.76 73.19 74.02 72.49 72.89 71.58 76.03 74.05 73.95 74.06 72.47 75.50 76.29 76.98 76.79

GFSMA_sfc_wetblb_108.txt.gz
Wetbulb
74.83 74.60 75.08 75.05 75.53 76.74 76.36 77.21 76.57 76.31 75.75 75.47 75.44 75.25 74.96 74.95 74.42 73.46 72.50 73.04 73.65 73.69 74.54 73.92 73.47 73.68 73.90 74.25 74.55 74.87 74.88 74.90 75.12 75.43 75.69 75.83 75.70 75.76 75.59 75.73 75.81 75.79 75.88
75.15 74.44 74.18 74.25 74.78 76.97 76.81 77.02 76.56 75.11 74.86 74.63 75.02 75.11 75.17 74.91 75.30 75.56 73.96 74.24 73.70 73.63 73.44 73.85 74.37 74.91 75.11 75.36 75.26 75.61 76.00 76.24 76.24 76.40 76.75 77.20 77.15 77.05 76.74 76.69 76.64 76.44 76.90
76.41 75.89 74.92 74.67 75.64 77.35 77.90 77.81 76.24 76.29 74.15 74.00 74.95 75.09 75.20 75.48 74.88 75.08 75.35 74.88 74.52 73.50 74.08 74.45 74.85 75.03 75.23 75.74 76.32 76.89 77.40 77.97 77.64 77.83 77.99 78.09 77.89 78.01 77.96 77.71 77.58 77.53 77.36
76.16 76.36 74.75 75.12 76.63 77.58 77.52 76.49 75.52 73.90 74.49 74.75 74.94 75.35 75.42 75.94 75.44 75.61 75.75 76.42 76.18 75.50 74.72 74.32 73.67 74.08 74.55 75.44 76.43 77.23 78.31 78.36 78.19 78.37 78.24 78.21 78.14 78.21 77.99 77.61 77.51 77.21 77.08
77.16 76.21 75.50 76.21 77.70 76.80 76.69 75.96 75.25 76.16 74.39 74.93 74.18 75.02 75.30 75.21 75.34 74.31 75.31 76.70 75.83 77.06 76.57 75.56 74.28 74.45 74.92 75.92 76.33 76.72 77.35 77.92 77.88 77.96 78.19 78.32 78.22 77.96 77.63 77.26 77.11 76.73 76.65
77.62 76.79 76.34 77.13 77.22 76.08 75.40 75.61 76.68 76.06 75.75 74.76 73.07 73.33 74.78 75.29 75.91 75.63 75.25 75.44 76.32 77.01 77.01 77.77 77.76 77.00 75.93 75.39 75.83 76.32 76.60 77.78 77.70 78.03 78.06 77.84 77.74 77.56 77.31 76.75 76.53 76.40 76.42
77.86 77.79 76.34 77.45 77.21 76.28 76.98 77.94 76.42 75.75 73.74 75.87 73.97 72.22 72.81 74.57 74.98 75.35 76.00 76.99 75.48 76.57 76.77 77.66 77.64 77.91 78.10 76.72 76.67 76.74 77.14 77.72 77.97 77.53 77.75 77.40 77.38 77.23 76.88 76.42 76.05 76.15 76.17
77.83 77.45 77.72 76.86 77.41 75.60 75.56 77.44 77.12 74.20 74.98 76.32 73.12 73.12 68.92 70.27 72.73 73.54 75.10 75.90 76.39 77.29 77.42 77.46 78.12 78.48 78.26 77.76 78.33 76.66 76.98 76.72 76.24 77.66 78.26 77.44 77.10 76.90 76.65 76.25 75.92 75.99 76.02
77.12 77.45 76.93 77.53 76.77 77.38 74.94 77.16 76.83 76.42 72.79 75.79 77.02 73.82 68.73 68.60 70.45 72.15 73.69 74.10 76.08 76.67 77.62 77.81 77.43 77.81 78.52 78.03 78.34 78.87 76.45 74.47 75.70 77.31 77.85 77.29 76.80 76.60 76.85 76.90 76.47 76.04 75.79
76.58 76.83 77.47 77.43 78.18 77.77 77.31 76.91 77.01 77.19 77.57 73.93 76.24 76.06 76.89 76.20 70.57 67.92 71.60 72.88 74.17 74.70 76.13 76.03 77.05 77.20 78.81 77.86 78.74 77.13 74.61 74.95 75.42 75.73 75.76 76.31 76.35 76.62 76.93 77.33 77.13 76.67 76.27
76.97 76.83 77.53 77.75 77.73 76.74 77.84 78.17 78.39 78.00 77.14 75.72 75.13 76.75 76.19 76.25 75.81 71.30 68.69 70.50 72.55 75.98 77.65 77.77 77.34 77.44 78.88 78.32 77.61 76.96 76.01 74.80 73.82 73.97 74.55 75.04 74.83 75.92 77.17 77.31 77.46 77.53 77.38
76.23 77.27 77.54 77.92 78.34 77.79 77.47 77.13 78.78 77.61 77.78 77.34 76.46 76.61 74.57 73.42 72.69 72.73 71.49 72.45 72.48 74.64 77.23 77.59 78.13 77.88 78.23 77.51 78.15 76.39 75.59 73.54 72.69 72.45 72.28 72.75 73.18 74.08 75.22 75.82 76.19 77.14 77.98
75.80 76.54 77.33 77.41 76.94 78.12 77.71 77.70 78.22 78.06 77.44 77.65 77.64 75.75 76.66 75.68 75.65 75.11 73.41 72.50 71.96 74.52 75.71 77.42 78.02 77.73 76.67 77.23 77.43 75.59 75.23 72.16 71.52 70.46 70.34 70.71 71.60 72.55 73.53 73.75 74.16 75.04 75.99
75.29 77.28 77.00 76.71 77.08 78.05 77.66 77.92 76.69 76.41 77.12 76.63 76.40 77.37 75.77 76.84 76.20 75.75 73.78 72.58 71.04 72.32 73.89 74.49 77.33 76.85 76.72 76.80 76.21 75.48 75.46 72.03 71.44 69.98 69.24 69.34 69.81 70.96 72.01 72.16 71.82 72.20 73.19
76.70 77.06 77.03 76.94 77.32 77.03 77.76 77.95 76.02 76.39 77.43 77.22 76.23 76.78 76.04 76.31 76.03 76.19 75.89 74.68 72.31 68.78 69.74 74.67 74.04 76.60 76.41 75.71 76.35 76.92 76.93 72.76 72.38 71.28 69.61 68.69 68.85 69.45 70.39 70.85 70.59 70.29 70.60
77.97 77.11 76.71 76.87 77.40 77.94 78.12 77.63 76.55 76.90 76.73 76.06 75.64 76.81 76.54 75.47 75.86 75.81 75.22 74.88 74.33 72.38 69.80 72.82 73.64 75.87 77.29 77.18 76.68 77.27 77.21 74.01 74.93 71.69 69.45 68.29 68.50 68.56 69.21 69.55 69.55 69.12 69.48
78.27 76.79 77.00 76.97 76.51 76.82 77.70 77.93 77.20 76.40 76.31 76.69 76.52 76.50 76.46 77.17 74.83 74.47 74.80 74.56 73.70 73.47 71.24 72.00 73.94 76.00 77.49 77.57 78.16 79.03 78.04 77.05 75.85 70.22 69.92 68.82 68.27 67.61 68.18 68.31 67.95 68.09 68.23
77.63 77.23 77.01 77.39 76.74 76.80 77.54 76.93 76.41 76.40 76.17 75.86 75.98 76.21 75.88 75.56 76.94 77.19 75.19 76.02 75.73 75.95 73.32 73.86 76.12 74.47 76.63 78.25 78.08 78.94 77.55 76.72 76.91 72.86 69.82 68.89 67.77 67.26 67.21 66.66 66.02 66.40 66.22
76.19 76.52 77.17 76.35 75.82 76.40 76.37 76.56 76.69 76.59 76.26 75.95 75.79 75.89 75.88 76.03 76.04 75.91 76.42 75.10 74.71 74.71 75.31 73.83 73.31 74.26 75.15 76.53 77.04 78.76 77.91 78.22 76.01 72.90 70.09 69.06 68.38 68.31 67.33 65.94 65.42 65.64 64.06
76.42 76.01 76.07 76.64 76.47 76.71 76.30 76.52 76.40 76.00 76.01 76.10 76.17 76.08 76.11 75.95 76.20 76.35 75.95 76.66 76.17 75.19 75.08 74.12 73.15 73.28 73.73 77.09 76.28 73.78 73.29 74.70 74.77 75.37 74.12 71.97 70.09 69.72 68.80 67.21 67.16 67.80 64.15
76.50 76.85 76.26 76.35 76.93 76.94 75.59 76.88 76.94 76.73 76.88 76.38 76.85 76.61 76.45 75.52 71.75 72.36 75.40 76.38 76.65 75.72 73.85 73.20 72.66 72.73 72.78 74.61 74.29 74.17 73.19 73.64 75.52 75.37 74.47 75.65 75.42 75.79 76.00 71.95 72.75 69.45 65.54
76.28 76.40 76.14 76.07 76.05 74.87 62.59 64.42 70.67 76.92 76.91 76.60 76.12 76.63 77.05 74.18 73.38 68.65 67.83 67.63 71.26 76.00 75.02 73.76 72.85 73.09 75.11 75.51 74.92 73.97 74.37 73.42 72.27 77.05 76.80 75.20 76.52 75.47 76.12 76.37 67.98 67.23 65.02
73.81 73.92 74.87 74.41 71.58 70.66 59.45 61.98 65.06 76.08 76.78 76.34 76.26 76.53 76.41 74.09 72.63 75.03 71.27 67.25 67.72 66.15 67.83 76.32 75.02 75.37 75.28 78.26 78.28 76.20 76.20 75.18 74.83 76.26 76.86 74.39 76.29 75.22 76.51 76.71 67.44 68.82 65.12
72.43 73.23 70.15 70.14 68.04 63.27 56.85 59.50 65.32 75.23 73.04 71.10 72.11 71.31 70.04 67.46 65.20 66.39 73.40 75.39 76.25 76.79 77.23 76.23 77.31 76.81 77.61 76.92 76.90 77.56 76.54 76.50 76.28 76.86 78.84 73.18 75.42 74.76 76.38 76.97 71.49 67.68 64.44
69.89 67.17 67.83 67.06 63.33 59.38 53.39 54.74 65.62 72.03 71.23 71.17 69.73 66.58 67.98 66.81 56.96 57.58 69.55 71.70 72.60 74.15 69.83 65.48 65.77 64.60 64.34 64.23 67.38 74.40 74.05 74.72 72.70 74.20 76.95 74.89 75.22 74.99 76.07 76.10 76.67 66.33 63.03
62.69 62.01 61.79 60.66 56.62 58.11 50.85 51.55 58.84 68.73 68.04 68.23 68.61 67.71 57.25 58.80 53.65 53.71 66.06 67.40 68.31 69.83 68.83 69.58 71.76 71.87 69.34 72.90 65.09 75.01 75.60 72.74 74.42 72.28 75.85 74.07 74.05 74.71 73.19 75.83 76.70 77.40 77.76

GFSMA_sfc_wetblb_114.txt.gz
Wetbulb
76.43 75.30 76.59 72.50 71.83 72.72 70.94 73.03 73.16 73.93 75.14 74.77 73.39 73.06 72.40 73.02 70.79 69.93 70.83 75.10 75.30 74.28 74.12 73.82 73.47 73.96 74.67 75.10 75.46 75.73 76.37 77.05 77.70 77.58 77.78 78.02 78.00 78.01 78.01 77.86 77.63 77.18 77.40
77.68 76.42 75.94 76.31 71.07 71.86 72.81 72.84 76.40 72.94 75.11 73.33 74.57 73.99 73.38 73.38 74.71 70.49 70.54 72.45 75.19 74.78 74.10 73.99 74.38 74.76 75.09 75.39 76.05 76.73 77.89 78.37 78.48 78.74 78.54 78.44 78.54 78.47 78.57 78.36 78.14 77.81 77.50
79.16 75.76 75.12 75.90 74.59 77.62 78.09 77.42 76.45 74.73 73.65 73.71 73.66 74.97 73.77 73.80 74.26 74.45 71.28 71.54 73.00 75.72 75.75 75.52 75.53 75.74 75.68 75.97 76.56 77.91 78.43 78.68 78.66 78.54 78.21 78.19 78.29 78.39 78.49 78.59 78.39 77.99 77.73
78.84 78.50 76.80 73.54 75.45 75.43 77.85 76.62 74.97 73.69 72.93 73.76 73.34 74.15 74.26 73.39 74.36 74.56 74.62 73.58 72.96 72.99 75.79 76.87 76.72 76.66 76.42 76.14 77.41 78.44 78.47 78.52 78.28 77.88 77.93 78.03 78.26 78.21 78.34 78.26 78.21 78.03 77.53
78.40 78.20 75.62 77.51 78.09 75.16 75.49 75.34 72.31 74.40 70.32 72.22 73.15 73.70 74.28 72.94 74.50 73.90 74.62 75.19 74.74 74.73 74.23 75.81 76.58 76.66 77.03 77.32 78.58 78.54 78.37 78.18 77.77 77.85 77.80 77.75 77.81 77.81 77.83 77.83 77.73 77.65 77.40
78.82 76.90 78.38 76.68 75.76 75.10 71.31 74.50 72.54 75.04 76.34 72.26 71.48 72.46 73.69 74.49 74.38 73.56 74.11 74.71 74.70 75.05 75.25 75.84 75.02 75.16 76.71 78.58 78.69 78.41 78.32 78.25 77.78 77.75 77.60 77.68 77.30 77.23 77.05 76.65 76.75 76.92 77.02
78.89 79.03 77.45 74.11 67.74 71.49 76.27 74.73 74.80 75.64 75.68 70.98 76.53 72.90 73.58 74.50 74.37 74.27 74.32 73.64 73.94 74.90 74.31 75.09 75.89 76.99 75.16 76.89 78.11 78.17 78.49 77.94 77.47 77.88 77.87 77.18 76.65 76.35 76.09 76.04 75.93 76.43 76.71
79.14 78.09 76.41 74.59 72.63 72.63 77.65 76.66 74.52 75.74 75.59 73.84 72.86 73.31 69.30 71.49 72.45 72.77 74.32 73.45 73.80 73.99 74.32 74.95 76.65 76.65 76.74 77.07 76.82 78.42 76.64 76.69 77.71 78.03 77.87 77.07 76.24 76.07 75.89 75.81 75.66 75.91 76.35
78.68 79.68 77.91 75.92 73.62 73.94 75.77 77.82 77.56 76.43 74.66 72.78 75.83 73.56 68.91 67.68 70.27 72.25 72.59 73.93 73.35 74.70 75.27 75.06 75.64 76.49 76.88 76.97 77.40 77.27 76.59 75.54 76.53 77.07 77.08 76.34 75.84 76.05 76.22 76.17 75.74 75.61 75.78
76.99 78.16 79.09 75.14 68.51 68.68 73.84 77.67 77.75 76.06 76.46 74.41 74.12 73.74 67.89 71.36 69.21 69.21 71.85 71.91 73.27 73.76 73.99 74.31 74.60 76.32 76.63 76.23 77.29 76.37 75.72 75.12 74.95 75.37 75.35 75.68 75.68 76.02 76.50 76.62 76.04 75.96 75.94
76.90 77.30 78.38 78.71 72.75 72.77 75.03 78.10 77.97 77.20 76.35 72.68 73.07 76.12 71.93 73.65 70.78 71.82 68.70 68.94 71.98 73.81 74.98 75.76 74.12 75.46 77.09 77.05 77.44 75.02 75.06 74.50 73.66 73.72 74.09 74.47 75.15 76.00 76.73 76.63 76.29 75.97 76.20
77.14 78.60 78.07 78.82 79.08 75.59 76.61 78.10 79.14 77.89 76.91 72.82 72.53 75.68 69.38 68.57 66.06 69.80 67.33 66.89 69.15 72.59 74.38 75.37 75.67 75.16 75.84 75.58 76.41 76.11 75.51 73.16 72.78 72.74 72.93 73.22 73.91 74.56 74.78 75.37 75.84 75.58 75.31
75.69 76.53 78.12 78.44 77.71 77.39 77.88 79.25 79.21 79.21 78.38 77.25 77.35 76.07 69.58 65.92 64.79 67.07 66.87 65.56 65.76 69.46 67.86 67.29 70.39 72.94 76.43 75.47 75.65 75.08 76.60 72.45 72.22 72.01 71.74 72.14 72.35 72.90 73.55 74.17 74.52 74.44 74.05
76.89 77.94 77.52 77.94 77.96 78.21 78.10 79.08 78.26 77.43 78.05 77.87 78.59 78.27 76.47 75.87 74.50 73.32 72.53 68.99 69.05 67.50 64.49 63.94 69.20 71.79 76.26 76.40 76.79 76.33 74.73 72.50 73.28 72.01 71.25 71.60 71.19 71.46 72.00 72.47 72.75 72.73 72.01
76.04 77.45 78.07 77.74 78.04 77.63 79.11 78.99 77.64 78.12 76.17 78.57 77.18 78.10 77.03 75.71 75.01 75.89 72.62 74.21 72.05 67.36 67.25 68.45 69.49 75.28 75.89 75.87 76.31 77.26 76.57 75.31 71.74 72.47 72.78 71.47 70.73 70.79 71.05 71.18 71.20 71.07 70.59
72.48 71.21 76.40 77.39 76.97 77.20 79.11 78.48 77.10 76.53 77.73 77.73 76.32 75.85 77.97 76.51 75.56 74.45 74.02 73.96 74.35 72.16 69.33 72.39 72.37 74.34 76.83 75.92 76.46 76.37 77.60 73.50 72.59 71.84 73.59 73.15 71.04 70.68 70.46 70.35 70.61 70.12 69.86
70.78 75.64 77.75 77.85 77.58 78.01 78.29 77.98 77.92 76.80 75.66 77.43 77.47 76.94 76.64 77.31 75.78 74.91 74.30 73.64 72.16 72.61 70.09 71.07 72.25 73.38 74.15 75.02 76.97 77.56 78.41 76.16 75.42 71.43 72.96 72.68 70.86 70.60 70.00 69.21 69.27 69.51 69.12
76.48 76.45 78.00 78.73 78.47 78.44 77.27 78.45 77.39 76.20 76.01 75.72 76.58 76.84 76.45 75.23 76.36 76.84 75.94 75.44 75.07 74.30 73.97 71.53 74.36 73.94 74.36 75.14 78.02 77.77 77.24 76.18 75.50 72.53 72.14 70.82 71.28 69.29 68.39 67.52 67.72 68.82 67.58
78.32 77.18 77.47 78.28 77.55 77.51 77.10 76.70 77.59 77.52 76.86 76.73 76.16 75.53 73.72 75.38 75.83 76.25 76.71 76.04 74.98 75.17 74.13 73.60 72.65 73.63 73.49 74.39 73.64 76.03 74.46 76.53 74.99 73.25 71.28 70.42 69.87 68.59 67.40 66.18 67.26 68.61 66.25
77.19 77.02 76.91 77.07 77.97 76.67 76.73 76.52 76.51 75.98 77.13 76.45 77.20 76.66 76.92 75.68 74.65 77.02 75.26 75.34 75.31 74.27 73.56 73.21 70.65 70.70 72.89 73.95 74.42 72.86 72.32 74.78 74.18 76.22 75.19 73.21 71.47 71.06 70.11 68.09 68.65 69.52 65.50
77.51 77.12 76.29 76.44 76.81 72.95 68.12 68.52 71.17 73.40 75.27 75.27 76.54 75.11 76.06 73.24 71.43 71.91 74.13 75.67 76.21 75.06 74.31 72.28 71.71 71.80 72.39 72.60 72.18 73.98 73.01 73.87 74.65 75.52 75.12 75.11 75.40 76.08 75.54 67.80 70.58 70.12 67.55
76.60 76.93 76.25 75.39 71.58 65.95 61.49 63.03 67.91 72.96 74.17 73.05 74.52 75.48 72.69 70.29 71.53 69.36 69.07 69.33 70.41 74.06 73.51 72.97 71.83 71.23 72.21 73.38 73.74 73.70 73.36 72.57 70.78 75.66 74.35 73.80 75.53 74.70 75.30 74.32 70.73 69.57 66.10
75.17 73.95 73.13 71.16 65.75 61.70 56.79 58.82 64.66 74.06 76.05 75.11 73.99 73.89 72.76 67.41 64.50 67.70 68.48 69.19 69.19 66.82 67.48 72.51 72.69 72.60 72.40 72.91 74.35 72.55 71.72 72.62 72.26 73.70 73.99 72.23 75.17 74.18 75.69 75.65 68.24 66.29 66.06
70.96 69.17 68.95 66.97 63.71 57.47 54.86 57.04 62.68 74.89 74.72 72.58 71.09 72.85 67.87 63.61 59.66 60.75 66.44 71.49 71.87 73.32 74.28 72.01 73.13 71.91 71.37 72.04 72.26 72.25 72.71 73.13 73.37 73.46 73.80 70.81 73.53 71.81 73.49 74.36 68.67 67.19 66.21
65.09 63.94 63.18 60.55 60.42 53.55 52.74 54.70 64.07 74.74 70.26 66.18 63.92 63.57 64.18 61.82 56.45 56.80 68.02 67.28 67.55 67.63 64.58 63.57 64.23 63.31 62.73 62.55 64.17 69.34 71.48 70.40 69.55 70.07 72.35 68.15 70.40 70.14 71.89 72.83 73.99 68.82 64.75
61.90 60.06 58.61 57.96 55.73 51.71 51.25 52.29 59.59 67.90 69.54 66.98 62.25 58.98 56.48 56.68 54.48 54.35 62.29 64.63 61.79 62.10 62.13 64.31 67.31 70.26 68.88 68.75 65.83 71.72 70.06 65.96 66.18 65.63 68.75 64.77 67.03 67.94 67.58 73.37 71.63 72.87 73.32

GFSMA_sfc_wetblb_117.txt.gz
Wetbulb
71.24 70.08 70.54 70.66 69.82 71.03 71.06 69.08 70.06 71.32 70.98 70.23 68.84 68.69 68.29 66.70 66.95 69.40 71.00 74.89 75.72 75.29 74.50 74.07 73.79 74.20 74.82 75.27 75.62 75.89 76.37 77.06 78.09 77.91 77.85 78.15 78.46 78.49 77.78 77.88 77.43 77.98 77.48
71.08 71.76 69.86 71.04 70.74 70.27 69.79 70.97 70.34 70.44 69.64 68.63 69.42 68.77 69.21 68.99 66.55 67.82 69.42 71.82 75.97 75.88 75.29 74.63 74.61 75.02 75.29 75.68 75.99 76.63 77.68 78.40 78.66 78.89 78.79 78.36 78.23 78.44 78.00 77.73 77.78 77.70 77.53
72.88 69.95 70.40 72.00 69.98 70.34 71.24 72.07 71.23 72.01 69.64 70.11 68.47 69.96 69.12 69.74 68.40 67.32 68.08 69.06 72.35 75.76 75.83 75.56 76.26 76.43 76.62 76.12 76.82 77.98 78.26 78.12 78.25 78.20 77.88 77.88 77.88 78.06 78.13 78.39 78.36 78.18 77.88
72.23 73.18 71.54 69.95 70.89 72.60 73.58 72.91 73.12 70.61 68.74 67.83 68.48 69.18 69.53 69.35 69.95 69.12 68.54 69.15 69.76 70.70 74.68 76.59 76.65 76.95 77.12 76.73 77.72 78.35 78.20 77.90 77.69 77.57 77.70 77.75 77.98 77.83 77.75 77.78 77.75 77.77 77.70
73.31 73.54 72.76 71.52 71.45 71.43 70.44 70.19 70.67 68.87 69.69 68.43 69.34 69.11 68.77 68.78 69.74 71.76 69.74 69.92 69.72 70.70 71.00 74.55 76.58 76.62 76.99 77.48 79.03 78.84 78.31 77.66 77.41 77.38 77.34 77.53 77.32 77.10 76.90 76.64 76.59 76.68 77.00
73.89 74.23 71.61 65.68 68.33 69.77 69.88 72.28 71.28 72.00 70.80 68.20 70.05 69.55 68.47 68.75 69.88 69.24 69.85 72.15 70.41 71.25 71.33 71.18 73.12 74.39 76.75 78.11 78.55 78.64 78.24 78.11 77.24 77.25 77.34 76.82 76.49 76.22 76.09 75.93 75.93 76.05 76.37
74.17 73.06 69.38 68.53 67.48 68.88 68.93 72.33 69.43 71.69 71.20 71.38 70.63 68.75 68.30 68.53 69.21 68.93 70.39 70.52 70.30 71.28 72.20 71.73 72.51 72.74 73.42 77.03 77.07 77.81 78.09 76.81 77.57 77.56 77.11 76.08 75.63 75.64 75.48 75.38 75.30 75.63 75.90
73.11 74.03 69.92 67.68 65.46 69.47 71.24 71.38 72.08 72.04 70.80 68.56 67.52 68.76 63.81 66.05 68.45 69.71 69.40 71.02 69.22 70.64 71.29 71.71 71.72 73.22 73.29 73.55 74.26 77.88 75.74 76.45 77.46 77.19 76.16 75.45 75.36 75.42 75.44 75.28 75.04 75.20 75.40
74.45 73.53 70.68 68.93 69.13 69.52 68.82 71.59 73.00 70.69 70.51 70.26 68.63 69.33 64.81 63.36 65.28 67.11 66.85 69.20 68.31 70.02 70.33 70.97 72.50 73.87 73.01 75.05 76.27 75.85 75.85 75.54 76.31 76.03 75.87 75.68 75.25 75.21 75.54 75.63 75.27 74.94 75.06
73.63 73.56 73.24 71.80 69.45 64.34 69.16 71.04 74.25 73.32 71.84 69.53 69.46 70.85 66.74 68.86 64.89 64.96 67.72 68.26 69.04 70.44 68.92 70.71 72.15 73.46 74.01 73.63 75.65 74.15 74.46 74.31 74.11 74.77 75.28 75.87 75.47 75.55 75.99 76.04 75.61 75.10 75.04
72.97 73.65 73.52 70.80 67.14 66.66 71.09 71.43 73.89 72.01 67.63 66.90 66.94 69.44 68.12 68.11 67.88 64.98 63.69 65.78 65.03 68.84 70.36 67.67 70.67 71.41 74.31 73.42 72.79 72.74 74.62 73.53 72.59 73.11 74.40 75.04 75.51 76.07 76.39 76.35 76.19 75.79 75.36
72.82 73.67 73.86 73.29 72.15 72.05 71.10 72.89 73.29 73.19 68.02 65.28 66.32 70.01 67.15 66.59 65.85 65.67 64.38 62.19 62.01 67.50 68.88 68.54 68.20 71.40 68.90 72.80 75.36 74.60 75.72 73.32 72.03 72.46 73.17 73.62 74.44 75.04 75.05 75.37 75.55 75.55 74.61
71.61 72.10 73.62 72.88 73.05 73.22 73.17 73.39 72.91 73.00 72.61 70.58 71.14 70.44 67.57 65.03 66.03 67.37 65.19 62.64 63.46 68.20 66.41 66.59 66.54 70.63 73.63 71.07 73.50 74.79 75.20 72.92 71.28 71.34 71.66 71.82 72.63 73.25 73.62 74.14 74.08 74.27 73.54
71.76 72.82 73.26 73.31 73.44 73.89 73.13 73.44 72.52 72.60 72.30 72.53 72.42 71.88 72.50 70.43 66.00 66.68 65.54 62.83 62.16 65.15 64.17 62.96 68.17 69.91 71.56 72.55 74.15 75.70 73.41 73.02 74.18 72.01 71.34 71.16 71.35 71.91 71.92 72.40 72.31 72.28 71.71
74.35 72.11 72.16 73.24 73.09 73.74 73.48 73.59 72.38 72.16 71.98 72.67 71.83 71.63 71.79 72.02 71.91 70.99 69.30 69.17 67.73 64.10 64.37 66.39 66.99 72.01 71.71 71.35 73.24 73.30 72.59 74.19 72.03 70.97 70.75 71.40 70.81 71.19 70.85 70.95 70.74 70.65 70.31
69.43 67.48 66.48 70.08 72.95 73.56 74.29 73.26 72.12 70.90 72.19 72.18 72.10 71.46 72.17 72.76 71.31 71.56 70.48 69.60 68.42 68.48 63.30 68.22 67.58 69.29 72.87 72.39 73.18 73.01 73.36 73.58 72.54 71.64 72.12 71.50 71.20 71.14 70.52 70.19 69.95 69.76 69.63
67.45 66.54 67.68 71.22 72.63 72.64 73.04 72.80 72.31 71.95 71.66 71.45 72.10 71.83 71.56 70.34 70.23 71.10 72.00 71.56 69.73 69.87 65.90 67.65 69.45 70.81 70.41 71.41 73.11 74.57 75.81 74.63 72.78 71.52 71.13 69.55 69.97 69.79 69.68 69.18 69.02 69.10 68.50
68.62 72.26 72.80 73.08 72.92 73.37 73.68 73.08 72.87 72.48 71.61 71.38 71.87 71.44 71.19 73.21 71.44 72.12 70.72 70.49 70.76 70.79 69.12 67.31 68.85 69.72 70.06 71.91 72.18 71.90 73.70 75.32 72.97 73.54 69.33 68.65 69.67 68.24 67.52 67.47 67.63 68.20 67.07
72.39 73.36 73.06 73.44 73.43 73.31 72.94 72.64 72.71 72.61 72.45 71.90 71.01 71.34 72.07 72.35 71.96 70.38 70.57 69.47 71.06 71.54 70.11 69.34 68.98 69.42 69.40 71.87 71.22 71.86 72.01 72.92 75.23 73.72 71.51 71.20 70.72 69.67 68.81 67.79 67.83 67.90 65.28
72.88 72.99 73.09 73.07 72.94 71.87 71.28 72.20 72.35 72.74 72.09 72.28 72.09 72.45 71.91 71.47 72.06 71.13 70.49 70.65 71.72 70.70 70.45 69.57 69.37 69.03 69.69 71.23 70.98 71.22 71.16 73.04 72.80 74.56 73.88 72.02 70.50 70.92 70.14 67.72 66.50 66.40 65.18
72.63 72.23 72.05 71.17 68.43 66.54 65.35 67.41 71.98 70.66 70.84 69.49 68.80 72.53 69.32 70.49 69.90 68.84 70.39 70.06 70.28 69.80 70.19 69.28 68.54 68.16 68.92 70.30 70.39 71.39 70.41 71.22 71.64 72.26 73.04 73.40 73.97 73.95 74.15 69.87 70.96 68.77 67.06
71.09 70.92 70.01 66.70 64.09 62.10 62.10 61.77 66.63 69.53 70.92 69.81 68.53 69.80 67.98 65.05 66.12 66.90 66.93 67.57 68.11 68.91 68.20 68.59 68.45 68.45 68.45 68.95 70.89 70.58 69.40 69.08 68.29 72.27 71.71 71.47 72.74 72.55 73.10 72.33 70.15 67.55 66.10
70.80 68.68 65.48 61.00 56.56 55.63 57.46 58.77 64.30 68.90 70.23 67.66 68.20 69.04 64.08 62.31 59.45 61.78 65.18 68.03 67.81 67.39 67.17 68.65 68.18 68.54 68.43 68.26 68.92 67.35 67.96 68.56 68.63 71.14 70.25 69.14 71.67 69.18 70.83 71.89 67.86 67.04 66.08
67.23 64.88 62.87 58.09 53.01 52.41 55.20 57.70 63.70 69.42 64.17 64.26 64.56 62.54 59.17 56.31 56.79 59.53 64.80 63.84 64.67 62.32 61.63 65.26 64.37 64.89 65.67 65.49 65.45 67.50 68.83 69.15 69.62 70.68 65.20 64.49 67.96 66.29 68.21 69.17 68.88 67.20 65.31
60.91 60.53 57.97 54.34 50.98 49.70 53.63 57.94 66.60 65.98 61.55 58.61 58.27 58.11 55.81 53.76 56.13 58.06 62.17 58.40 57.03 57.91 60.33 60.94 61.99 62.92 63.15 63.61 64.83 65.77 64.64 63.58 62.51 63.33 63.67 60.21 62.22 64.31 65.92 68.25 69.20 66.14 61.93
59.60 58.41 55.82 52.51 52.02 49.03 52.04 55.17 60.77 65.59 59.46 55.92 54.85 53.76 55.99 53.39 53.78 53.98 56.37 56.85 53.91 55.32 56.17 59.96 63.15 65.12 65.39 63.68 62.85 62.59 63.05 61.64 59.37 57.32 61.11 60.14 60.84 62.85 61.97 65.28 65.87 64.76 63.12

GFSMA_sfc_wetblb_123.txt.gz
Wetbulb
68.42 69.03 69.34 68.98 67.05 69.12 68.87 69.04 68.16 68.72 68.47 69.35 68.82 69.20 67.04 67.55 67.17 68.52 69.87 74.06 74.31 74.48 74.31 74.29 74.32 74.51 74.72 75.23 75.88 76.25 76.51 77.09 78.16 78.42 77.91 77.86 77.58 77.64 77.34 76.88 77.23 77.18 77.15
69.00 69.71 68.63 68.02 68.51 68.83 67.68 67.81 68.92 68.15 68.94 67.36 66.66 66.61 66.25 66.00 66.41 67.87 70.11 70.71 75.47 74.90 75.08 74.98 75.05 75.33 75.44 75.71 76.49 77.08 77.78 78.26 78.57 78.60 77.57 77.26 77.26 77.41 76.93 77.03 77.36 77.72 77.64
69.52 68.48 68.10 68.51 69.01 69.14 69.59 70.76 70.66 69.75 68.54 67.64 66.59 65.77 64.94 65.54 65.82 66.19 67.93 68.44 70.06 74.91 75.22 75.12 76.32 76.87 76.08 76.04 76.78 78.01 78.48 78.47 78.52 78.34 77.46 76.98 77.36 77.44 77.44 77.21 76.84 76.43 76.16
69.84 69.38 68.69 68.41 70.29 70.35 69.37 69.16 68.69 68.27 67.75 67.43 66.46 65.70 65.97 65.64 65.21 65.14 65.50 66.69 67.25 69.06 71.30 75.50 76.33 76.81 76.10 76.56 78.19 78.61 78.15 78.67 78.37 77.44 77.26 76.91 77.10 76.80 76.61 76.26 75.85 76.23 76.05
71.74 71.07 69.31 70.06 69.44 69.17 69.89 70.32 69.05 67.66 66.85 66.62 66.65 66.70 66.65 66.26 65.49 66.74 65.52 65.64 65.47 67.48 67.39 69.91 73.75 75.49 75.87 77.13 78.68 78.74 78.84 78.66 77.93 77.03 77.31 76.47 76.09 75.95 75.96 75.85 75.60 75.55 75.94
72.12 69.10 66.83 65.97 67.82 68.00 69.08 69.40 67.68 69.02 66.21 66.13 67.84 68.16 66.69 66.53 66.64 67.08 67.20 67.53 67.09 67.44 67.96 68.63 69.02 70.28 73.98 74.84 76.67 78.12 78.26 78.48 77.81 77.14 76.49 75.31 75.22 75.40 75.53 75.35 75.20 75.14 75.41
71.72 68.57 66.46 64.20 67.51 69.11 69.85 70.94 69.30 68.39 66.56 67.34 66.68 66.79 65.81 66.76 66.30 67.97 68.50 68.61 68.28 69.44 69.53 70.22 70.08 70.74 71.56 74.10 75.57 76.47 78.23 79.02 77.87 77.49 76.03 75.32 75.18 75.00 74.95 74.70 74.69 74.96 74.95
72.21 69.98 68.08 63.75 68.37 68.12 69.05 70.78 70.22 68.34 67.55 66.99 67.32 64.58 62.14 63.85 65.66 66.10 67.57 68.61 68.10 69.18 69.28 70.67 70.91 70.93 71.10 72.33 73.26 76.86 77.32 77.73 77.36 77.59 76.57 75.99 75.43 75.13 74.93 74.47 74.46 74.75 74.53
72.24 70.57 67.30 66.31 67.77 65.91 68.74 69.85 70.75 69.48 67.93 67.77 67.05 66.67 62.27 60.91 64.43 65.30 65.51 66.97 68.29 68.04 68.42 69.25 70.15 71.15 72.65 72.68 74.10 73.57 74.58 74.70 75.87 76.70 76.71 76.49 75.69 75.45 75.40 74.90 74.70 74.67 74.38
71.96 71.25 69.20 67.94 67.53 63.77 68.99 70.75 70.77 68.99 67.21 66.45 68.47 66.48 66.32 64.79 62.15 62.15 65.60 66.70 65.62 67.88 67.16 68.93 70.08 70.20 72.43 72.14 73.63 74.10 73.48 74.15 74.85 76.05 76.37 76.34 76.51 75.91 76.15 75.60 75.13 75.08 74.44
71.21 71.86 70.93 69.79 63.71 67.59 69.54 70.89 69.31 65.24 66.61 66.74 66.92 66.30 65.85 65.69 64.41 63.09 60.79 63.69 64.30 64.72 68.88 68.42 69.26 70.06 70.49 70.38 71.80 72.27 74.53 74.51 74.01 74.73 74.95 75.17 75.79 76.41 76.66 76.79 75.85 75.75 74.95
70.75 71.23 71.55 69.59 67.35 69.31 70.21 71.30 70.40 65.16 64.09 66.43 68.13 66.12 66.05 65.58 63.20 62.60 60.44 59.97 59.56 63.05 67.52 67.76 67.71 67.82 68.18 70.00 72.63 74.25 74.30 73.80 73.03 72.76 72.69 73.22 74.18 74.58 75.01 75.56 75.54 75.56 74.02
69.39 70.44 71.17 70.51 69.77 70.51 70.64 71.48 70.86 69.72 65.90 67.58 69.04 67.48 65.67 65.21 65.45 63.57 62.73 60.97 59.68 62.70 65.70 65.80 65.65 66.37 68.15 68.70 70.30 73.56 74.20 72.19 71.64 70.52 69.95 71.02 71.99 72.68 73.48 74.18 74.05 73.80 73.03
69.59 70.55 71.63 70.96 70.62 70.92 71.19 71.10 70.79 70.77 70.60 70.50 70.27 70.08 67.51 65.19 65.63 66.03 64.91 62.85 63.20 62.87 63.97 64.41 66.20 68.67 69.42 70.59 71.95 73.93 71.43 70.73 70.04 68.79 69.02 69.44 69.89 70.89 71.82 72.24 72.16 72.09 71.22
70.88 70.87 71.97 71.55 71.18 71.93 71.16 70.72 70.34 69.75 69.38 70.30 70.08 69.61 70.00 69.41 66.46 66.56 65.85 64.71 64.90 61.80 62.37 65.03 65.65 67.96 69.46 70.32 72.57 72.29 72.85 71.37 70.08 69.43 68.50 68.70 68.97 69.89 70.10 70.31 70.35 70.29 70.20
71.05 71.87 71.30 70.86 71.23 70.94 71.38 70.75 70.31 70.10 69.62 70.48 69.98 68.96 69.64 69.93 68.74 69.09 67.93 67.68 66.14 64.56 60.57 64.04 66.70 67.39 69.22 71.30 73.28 72.18 72.90 71.94 70.56 69.09 68.58 68.02 68.28 68.87 68.32 67.87 68.52 69.20 69.22
69.58 69.72 69.62 69.19 70.41 70.88 71.26 71.28 70.58 70.06 69.33 69.33 69.55 69.51 69.13 68.54 67.99 68.91 69.44 69.17 68.20 66.29 63.90 65.97 66.94 69.09 68.99 70.47 72.21 72.01 72.81 72.24 72.24 69.48 68.67 67.94 67.51 67.43 66.62 66.74 67.05 67.99 68.05
68.88 68.02 66.86 67.19 70.37 70.85 70.99 70.83 70.69 71.32 69.72 69.41 69.53 69.86 69.73 70.84 69.18 69.21 68.45 68.38 68.27 68.09 66.56 64.63 66.83 68.30 68.12 71.05 71.52 71.23 72.02 72.91 71.58 71.01 67.95 67.78 67.16 66.56 65.27 65.19 64.60 64.88 64.68
69.26 68.74 67.66 68.20 70.68 71.20 71.32 71.52 71.42 71.45 71.25 70.63 70.36 69.85 69.54 69.66 69.44 69.50 68.42 67.66 68.47 68.90 67.93 66.83 65.98 67.68 68.24 70.31 69.88 70.06 70.20 70.20 72.44 70.57 68.76 67.88 67.27 66.52 64.76 62.58 61.59 61.25 61.23
68.24 67.38 68.44 70.48 71.53 71.70 71.44 71.44 71.57 70.81 70.87 70.56 70.35 70.24 70.23 70.30 69.77 69.21 69.29 68.76 69.01 67.98 67.80 66.33 66.08 66.53 67.52 69.05 68.86 68.29 67.89 69.15 69.05 64.98 69.56 67.58 66.96 67.66 65.05 62.22 62.37 60.64 58.24
70.38 70.35 70.47 69.51 68.83 68.42 67.01 67.95 69.35 70.88 69.73 69.98 68.45 67.68 66.76 67.08 66.61 67.01 69.39 68.29 67.84 67.01 66.92 66.67 66.35 66.37 66.37 65.63 65.29 67.68 66.17 67.25 68.02 61.27 64.40 65.54 65.88 66.77 67.34 61.35 61.69 61.42 58.92
69.26 68.61 67.75 66.27 65.57 65.07 61.36 62.46 64.52 68.86 69.46 68.22 66.27 64.76 64.85 65.10 65.50 65.58 64.98 65.45 67.05 67.19 65.93 66.26 64.93 62.77 63.00 64.38 64.85 64.19 64.90 64.70 65.29 61.18 60.66 62.81 63.84 63.04 65.14 59.55 60.01 59.42 58.29
67.07 64.51 62.92 62.32 61.51 59.99 58.71 58.42 62.29 67.39 68.36 66.63 64.53 61.53 60.72 62.61 64.23 65.98 62.79 61.11 61.05 61.52 63.54 63.53 61.03 61.00 61.32 62.89 62.80 63.00 63.23 62.74 59.96 56.78 58.12 57.51 59.63 59.84 65.04 59.51 58.44 58.38 58.02
63.79 61.47 60.76 61.74 60.93 59.85 59.57 58.66 63.26 66.78 65.40 63.54 60.61 58.07 58.83 59.96 60.81 60.35 58.37 57.16 57.34 57.96 58.60 61.11 60.08 58.63 58.82 60.58 62.07 62.19 62.15 60.35 62.32 55.77 53.02 55.82 56.96 54.77 62.44 59.73 57.98 57.57 56.88
59.83 57.46 56.09 56.06 58.24 59.60 57.90 61.30 63.17 61.48 59.01 57.52 55.98 54.50 55.31 56.26 58.37 57.22 55.41 56.05 56.82 58.29 58.40 58.39 57.79 57.01 56.77 57.10 56.86 54.87 53.79 54.26 53.96 53.07 50.35 52.64 49.19 50.33 56.89 55.22 53.74 56.46 55.30
53.78 53.83 53.12 54.68 54.65 56.40 57.00 59.12 59.47 57.36 54.41 54.06 53.99 54.36 55.94 54.79 55.40 55.84 55.67 56.06 55.13 54.82 54.31 53.45 53.77 54.26 53.82 53.73 55.29 51.94 51.95 50.98 50.35 45.26 48.35 49.33 45.98 47.80 46.19 52.49 51.80 51.65 51.82

GFSMA_sfc_wetblb_129.txt.gz
Wetbulb
74.05 74.78 74.25 74.05 75.10 75.77 75.46 75.99 75.71 75.58 75.87 73.99 74.86 75.08 74.57 73.72 73.03 71.80 72.42 71.73 73.75 73.99 74.62 74.93 75.33 75.82 76.14 76.73 77.40 77.69 77.99 77.93 77.87 78.02 78.33 77.76 77.18 77.28 77.34 77.35 77.53 77.26 77.27
75.31 75.25 74.88 74.95 75.99 76.44 76.67 76.71 77.01 76.32 74.96 73.86 73.31 74.45 74.31 73.72 73.31 72.30 72.88 73.75 72.98 75.02 75.09 74.95 75.61 76.09 76.32 76.57 77.33 78.22 78.26 78.17 77.98 77.99 78.06 77.41 77.13 76.99 77.07 77.13 76.80 76.53 76.46
75.90 75.10 75.38 75.64 75.93 76.30 76.57 76.91 76.72 77.17 74.23 73.78 73.38 73.61 73.63 73.23 72.49 71.91 72.77 72.79 73.15 72.40 72.54 74.21 73.90 74.73 75.35 76.06 77.59 78.60 77.90 77.89 77.96 78.16 77.06 76.68 76.60 76.79 76.73 76.61 76.53 76.26 76.04
75.59 76.04 75.49 76.06 76.01 77.15 76.91 76.88 76.37 75.36 74.41 74.41 73.35 72.94 73.34 73.67 73.60 73.35 73.11 72.71 72.94 72.57 73.86 71.79 72.46 73.71 74.60 75.75 77.60 78.62 78.58 78.00 77.77 77.42 76.62 76.45 76.60 76.70 76.33 76.29 76.16 76.06 75.86
76.26 76.89 75.67 75.76 76.55 76.53 76.62 76.66 75.49 75.64 73.89 73.60 73.36 74.38 74.86 75.12 74.79 73.75 74.52 74.80 74.57 73.49 74.39 75.42 73.25 73.56 74.78 76.61 77.82 78.32 78.54 78.28 77.92 77.15 76.80 76.09 76.21 76.56 76.19 75.99 75.69 75.61 75.80
76.65 76.90 75.70 75.68 76.56 77.07 76.85 75.62 75.10 74.93 75.06 74.38 73.00 74.21 75.20 75.42 75.23 75.42 75.07 75.00 74.85 75.15 75.79 76.15 76.17 76.10 75.16 75.23 75.90 76.59 78.11 78.38 78.02 77.41 76.89 75.84 75.79 76.25 76.09 75.66 75.06 75.43 75.52
75.37 75.07 74.79 75.00 76.53 75.97 76.90 76.92 75.67 74.93 74.45 76.22 74.79 73.93 74.29 74.72 74.58 75.29 75.79 75.46 74.94 75.01 75.73 76.26 76.82 77.14 77.13 75.85 75.78 76.96 77.08 77.30 77.89 77.56 77.20 76.34 75.60 75.85 75.76 75.31 74.61 75.23 75.17
76.21 75.12 74.43 74.56 76.62 76.19 77.23 77.12 76.89 74.70 74.23 75.31 74.41 73.03 70.14 71.86 74.88 74.09 75.57 75.87 75.04 75.39 74.70 75.50 76.61 78.07 78.15 77.49 77.68 75.86 76.14 76.10 76.86 77.95 78.08 77.06 76.37 75.72 75.81 75.43 74.61 74.98 74.50
75.73 75.64 74.60 74.57 76.23 76.20 76.57 77.46 76.90 75.97 73.76 74.43 74.62 73.79 69.79 68.25 72.93 74.66 74.03 75.15 75.47 75.53 75.75 75.52 75.42 77.54 78.70 78.22 77.39 77.41 74.94 74.83 75.88 76.77 77.53 76.94 75.96 76.14 76.31 75.91 75.03 74.86 74.30
76.07 75.34 73.02 75.01 75.14 76.08 77.26 77.34 76.32 76.51 76.47 74.02 74.14 73.70 73.93 73.65 70.87 70.14 73.46 73.49 74.48 73.46 74.30 74.49 74.42 75.45 76.77 76.79 76.91 75.63 74.26 74.50 75.00 75.41 75.91 76.28 76.06 76.36 76.89 76.76 75.69 75.18 74.43
76.51 75.84 75.07 74.07 74.84 74.54 77.56 77.84 74.95 76.45 76.00 75.12 74.97 73.54 73.91 72.95 73.67 70.80 68.77 71.36 74.09 74.12 74.42 74.27 74.68 75.42 75.75 76.70 77.13 76.64 74.48 73.87 73.39 73.78 74.56 75.18 76.59 76.98 77.02 77.24 76.73 75.67 74.86
75.60 76.43 75.93 76.10 75.05 74.24 76.52 77.90 75.17 75.09 76.37 75.51 75.06 74.91 73.35 72.88 71.64 71.40 70.03 71.82 69.93 71.72 74.23 74.74 75.62 76.58 77.00 77.78 77.81 75.21 73.73 72.72 72.00 71.92 72.40 73.04 73.26 73.69 74.13 75.52 75.09 74.70 74.09
74.40 76.23 76.71 76.46 75.59 75.35 76.50 77.39 77.47 74.68 73.93 76.31 76.82 74.16 74.75 74.23 74.45 73.36 72.42 72.23 71.08 72.34 74.60 75.62 76.13 76.93 77.32 77.84 77.41 75.67 73.02 71.59 70.86 69.94 69.90 70.14 70.36 70.89 71.37 73.16 74.01 74.19 73.56
74.65 76.59 76.61 76.78 76.56 75.95 76.43 77.32 76.83 76.42 76.76 76.84 76.11 77.02 75.14 74.67 74.98 74.48 73.32 71.98 72.37 73.04 73.98 73.56 76.78 76.92 77.35 77.12 76.74 75.37 76.09 70.39 69.61 68.42 68.00 68.11 68.71 69.97 71.06 72.29 72.46 71.76 71.57
75.40 76.23 76.50 76.59 76.73 76.43 76.21 77.04 76.09 76.57 76.93 76.90 76.48 76.51 76.48 76.21 74.58 75.21 74.68 73.82 71.85 68.64 69.60 72.99 74.40 76.82 77.42 77.51 75.40 77.20 77.05 69.29 68.55 66.24 64.97 65.31 66.52 67.80 68.68 69.15 69.30 69.63 69.94
75.99 75.92 76.00 76.34 76.78 76.45 76.21 76.60 76.37 76.98 76.21 75.69 75.75 76.47 76.56 76.26 75.85 75.42 74.67 74.33 74.19 71.75 68.76 73.23 75.10 76.60 77.48 76.51 75.41 77.42 76.17 70.16 67.30 65.28 64.12 63.74 64.27 64.87 65.18 65.11 65.35 66.00 66.69
75.82 75.63 76.14 75.90 76.04 76.26 76.66 76.83 76.66 76.45 76.15 76.08 76.26 76.56 76.09 76.78 74.92 75.08 75.41 75.73 75.00 73.88 70.88 73.20 75.49 76.98 76.95 76.12 76.22 77.04 76.53 74.20 67.38 64.16 63.52 62.88 61.90 61.16 60.88 60.54 60.65 61.21 62.40
75.98 75.83 75.78 75.79 76.15 75.74 76.34 75.97 75.59 75.41 75.56 75.13 75.26 75.60 75.70 75.13 76.09 76.31 75.22 75.85 75.15 75.56 73.02 72.35 74.63 75.35 75.57 74.95 75.92 75.53 73.30 72.31 71.27 63.68 62.51 61.62 60.02 59.14 58.40 57.92 57.89 57.73 57.51
75.04 75.24 75.01 74.94 75.03 75.16 75.70 76.16 76.21 76.17 75.65 75.57 75.65 75.15 75.54 75.61 75.39 75.09 76.13 75.92 74.58 74.64 74.51 74.91 72.40 74.96 75.35 74.64 75.06 75.34 71.09 70.69 71.55 65.87 61.99 62.03 61.45 59.33 57.53 56.95 56.68 55.91 55.30
75.00 74.74 75.21 75.00 74.54 74.59 75.18 75.75 76.00 76.12 75.97 75.70 76.18 76.09 75.89 75.68 75.92 76.32 76.36 76.91 75.99 75.36 75.73 74.33 72.23 73.37 74.92 73.93 74.92 73.99 70.53 67.17 67.85 69.79 64.61 62.44 63.31 61.03 58.41 56.81 57.05 56.21 54.56
74.93 75.51 75.25 74.87 74.87 74.40 74.09 75.35 76.20 75.76 75.97 75.80 76.11 76.04 75.64 73.64 67.81 70.70 76.61 76.71 76.11 75.77 74.70 72.34 73.86 73.46 72.22 71.87 72.25 73.09 73.16 70.98 64.60 66.61 66.96 68.33 63.76 63.13 59.40 56.63 55.86 54.78 54.68
75.15 75.15 74.75 74.80 74.71 73.37 65.43 66.01 71.67 74.78 75.81 75.70 75.13 74.13 72.79 68.79 68.74 65.77 65.76 64.89 68.80 74.92 74.13 74.16 72.23 70.92 71.14 71.98 72.61 71.14 70.83 70.61 67.01 62.89 65.91 65.08 62.97 60.52 56.80 55.42 52.91 52.68 52.85
74.93 74.61 74.61 74.85 74.68 74.58 61.60 62.63 64.88 72.81 73.48 74.19 74.26 70.50 70.32 69.89 68.91 68.93 63.34 62.99 63.12 62.48 65.84 70.43 68.42 68.67 69.70 69.18 70.11 68.44 68.38 65.16 61.43 58.92 64.71 57.87 65.70 58.80 58.36 55.69 52.33 51.49 51.10
72.66 72.77 72.34 72.42 71.44 70.74 60.88 60.83 62.21 72.35 72.00 72.24 71.50 69.59 68.71 66.74 67.50 65.86 67.74 66.72 64.44 64.24 65.12 65.60 65.54 64.11 65.00 65.93 67.59 67.99 67.72 62.72 60.58 57.73 60.43 61.24 57.12 62.59 59.84 56.58 52.96 51.01 50.14
68.66 69.06 69.05 68.45 68.58 67.69 60.49 59.91 62.12 69.90 67.27 64.71 64.25 65.36 67.74 65.10 58.08 60.24 65.56 63.57 61.38 58.70 55.50 55.57 55.82 55.97 55.30 56.11 59.73 65.87 64.89 64.07 62.75 56.66 54.89 59.15 54.70 57.87 62.24 58.24 55.32 52.29 50.28
62.60 61.81 61.21 60.04 57.69 64.07 59.29 57.86 61.41 67.26 62.95 57.83 58.99 57.87 57.36 58.50 55.58 58.36 64.36 63.40 60.78 59.08 59.36 59.55 59.51 57.91 57.51 56.40 55.19 59.23 59.03 58.12 58.62 55.49 53.10 56.26 53.61 54.41 55.17 59.60 56.07 53.65 53.87

GFSMA_sfc_wetblb_132.txt.gz
Wetbulb
75.68 75.94 75.96 75.86 76.75 76.89 76.56 77.26 77.18 76.70 76.09 74.73 74.76 74.60 73.19 73.15 72.50 72.96 73.39 72.49 73.22 73.69 74.42 74.95 75.56 76.18 76.59 76.84 77.27 77.89 78.64 79.01 78.77 78.65 78.81 77.97 77.63 77.20 77.28 77.32 76.72 76.09 76.11
77.18 75.53 75.83 75.27 76.02 78.21 78.15 78.17 77.51 76.82 74.99 73.90 74.64 74.29 73.55 73.68 73.82 74.34 74.27 74.06 72.76 73.85 74.65 74.98 75.53 75.84 76.21 76.40 77.59 78.36 78.82 78.67 78.56 78.77 78.16 77.45 77.14 77.13 77.06 76.77 76.38 76.39 76.46
76.95 76.95 76.05 75.81 76.42 77.88 78.47 77.88 77.30 76.89 73.90 73.44 74.70 74.63 74.44 73.97 73.70 73.74 74.33 75.14 74.66 73.17 73.11 73.86 74.79 74.32 74.96 75.54 76.53 78.43 78.73 78.80 78.76 78.65 77.54 77.13 77.00 77.02 76.86 76.66 76.46 76.59 76.43
77.18 77.65 75.41 75.64 77.62 78.76 78.49 78.32 75.81 74.53 74.11 72.89 73.33 73.53 74.39 74.83 75.52 75.54 75.67 76.60 76.99 76.00 75.24 74.96 74.88 74.35 75.01 76.26 77.76 78.88 78.92 78.96 78.32 78.19 77.37 77.15 77.04 76.89 76.81 76.44 76.55 76.20 76.23
77.43 77.76 76.09 76.39 79.23 78.40 77.94 77.29 75.32 74.93 73.56 72.64 72.47 73.69 74.62 74.68 75.27 74.83 76.37 77.60 77.54 76.56 76.77 76.21 74.73 75.04 75.62 76.20 76.73 77.12 78.35 78.59 78.35 77.94 77.30 77.17 76.74 76.82 76.76 76.34 76.07 75.95 75.95
77.34 77.62 76.19 77.33 78.86 78.34 76.98 76.86 76.45 76.12 75.58 74.40 71.88 72.56 74.78 75.62 77.03 76.82 76.73 76.66 77.79 77.28 77.24 78.08 78.28 78.41 76.88 75.25 75.54 76.53 78.34 78.02 78.12 78.08 77.84 77.40 76.88 76.56 76.59 76.30 75.92 75.67 75.42
77.49 77.85 76.44 76.74 78.47 77.40 78.12 77.99 76.68 76.25 74.81 76.94 73.10 72.49 73.79 74.94 74.85 76.24 77.22 76.57 77.04 76.94 77.26 77.83 78.42 79.34 79.14 76.53 77.03 76.81 76.61 77.00 78.27 78.62 78.38 77.78 77.35 76.75 76.17 76.07 75.82 75.37 75.20
77.05 77.15 77.94 76.80 78.03 77.27 78.77 78.90 78.45 75.28 76.24 77.58 73.37 73.06 68.60 71.50 73.24 74.75 77.06 76.66 77.42 77.49 77.73 77.68 77.94 79.91 79.23 79.31 77.09 77.04 76.31 75.81 76.74 77.87 78.13 77.51 76.75 76.43 76.23 76.10 75.90 75.32 74.95
76.81 77.58 77.71 76.83 77.94 77.39 76.70 78.99 78.35 77.01 74.35 76.49 77.16 73.80 69.46 67.94 72.10 74.58 75.71 77.01 77.67 76.53 77.12 77.54 77.25 78.32 78.79 78.19 78.69 78.38 75.64 75.12 76.02 76.99 77.59 77.70 76.85 76.58 76.63 76.50 76.10 75.25 74.85
77.24 76.88 77.65 76.54 77.76 77.00 78.32 78.75 78.34 77.94 77.84 75.07 75.57 76.50 76.81 75.65 69.87 70.03 74.11 76.13 76.10 75.36 75.74 76.05 76.50 77.68 78.63 77.35 79.37 75.24 75.12 74.26 74.95 75.62 76.17 76.32 76.93 77.26 77.88 77.49 76.86 75.56 75.25
77.30 77.01 77.30 76.53 76.43 75.72 78.70 78.98 77.71 78.19 77.80 75.59 75.15 75.83 76.59 75.58 76.19 71.46 68.87 72.74 75.16 76.40 76.40 76.47 77.21 77.39 78.06 77.52 77.17 76.18 74.46 73.82 73.64 73.38 73.54 73.85 74.12 74.60 75.35 76.58 75.57 75.51 75.26
75.78 76.76 77.40 77.94 77.53 76.06 77.66 77.98 78.42 77.72 78.46 77.81 76.41 76.01 74.24 73.25 73.41 72.09 71.16 73.04 72.23 74.25 76.75 77.76 78.37 77.25 76.98 76.60 77.08 75.30 73.57 72.76 71.55 70.94 70.80 71.31 72.27 73.22 73.77 75.76 75.80 75.13 74.96
74.02 76.28 77.48 77.46 76.85 77.30 77.46 78.50 78.72 77.98 76.67 77.65 78.50 76.24 77.16 76.69 76.28 74.85 72.73 72.80 71.86 74.27 75.61 76.98 78.10 77.72 77.07 77.05 77.87 76.33 72.86 70.76 69.40 68.32 68.77 70.14 71.34 72.92 73.97 74.05 73.70 73.50 73.33
74.93 76.81 77.53 77.24 77.65 77.87 76.70 78.17 77.28 76.60 77.37 76.74 77.25 78.12 76.83 77.28 77.33 76.49 74.21 72.34 71.09 71.58 73.70 74.62 76.97 76.75 77.82 77.83 76.46 76.13 74.82 67.66 66.53 66.02 66.10 67.03 67.95 69.15 70.06 70.48 70.90 71.04 70.87
75.92 77.09 77.26 77.17 77.37 77.94 77.46 77.82 76.19 77.05 77.49 77.24 76.82 77.49 76.67 76.84 76.14 76.16 76.01 75.13 72.77 69.16 69.23 74.51 72.30 77.81 77.51 78.46 75.34 78.51 71.80 66.11 65.93 65.32 64.88 65.06 65.59 66.19 66.59 66.97 67.30 67.79 68.44
76.81 76.86 77.09 77.15 77.17 77.67 77.82 77.68 76.72 77.65 77.45 76.07 75.94 76.59 77.41 75.89 75.97 75.56 74.81 74.37 73.63 71.42 68.05 70.42 72.97 76.03 77.88 76.60 76.60 77.94 71.86 66.93 64.86 63.40 62.09 61.53 61.77 61.98 62.11 62.33 62.60 63.36 64.48
77.14 76.63 76.84 76.55 76.87 77.07 77.84 77.66 77.25 76.83 76.80 76.94 77.07 76.57 77.03 77.82 75.30 74.28 74.60 74.27 73.78 73.19 70.30 71.58 75.81 76.90 76.92 77.02 77.19 78.11 74.58 70.51 65.62 61.76 60.98 60.15 59.93 59.69 59.56 59.48 59.60 60.33 60.90
76.32 76.88 76.75 76.35 76.50 76.74 77.25 77.10 76.41 76.35 76.05 75.95 76.27 76.41 76.09 76.00 77.24 77.05 75.30 76.19 75.76 75.69 72.96 72.50 75.14 74.78 76.32 76.76 77.55 76.89 74.71 69.30 66.05 61.54 60.79 59.56 58.84 58.89 57.96 57.55 56.97 56.95 57.19
77.14 77.12 77.19 77.30 77.01 77.19 76.93 77.27 76.78 76.55 76.56 76.35 75.97 75.96 75.96 76.00 76.36 75.99 75.75 74.98 74.74 74.83 75.58 74.11 72.39 74.84 75.89 76.43 76.13 75.16 73.89 73.02 69.09 63.32 61.12 59.88 59.04 58.69 57.23 56.53 55.89 55.19 54.60
77.00 77.09 77.37 77.34 77.34 77.04 77.47 77.41 77.15 76.91 76.40 76.25 76.66 76.69 76.41 76.27 76.29 76.54 76.48 76.27 75.24 74.62 75.58 74.02 74.31 73.27 75.37 75.77 75.70 73.89 70.06 72.78 70.36 69.64 64.27 65.10 61.22 58.14 57.52 56.21 55.47 54.67 53.80
77.04 77.49 77.15 76.97 77.14 76.75 75.98 76.82 77.13 76.95 76.48 76.29 76.50 76.56 76.62 74.61 69.07 71.29 75.15 77.60 77.09 75.72 74.91 74.89 74.08 75.48 74.91 72.80 73.64 75.43 72.31 68.92 69.04 70.02 71.08 68.29 66.25 62.64 58.47 56.57 55.64 53.81 52.97
76.60 76.88 76.18 76.06 76.48 75.44 67.67 68.67 72.71 76.10 76.52 75.96 75.46 76.13 76.21 70.46 69.64 66.77 66.77 65.26 69.52 75.75 72.73 71.43 70.91 71.29 73.57 73.37 74.52 74.14 74.75 72.69 66.89 67.47 68.17 68.13 65.71 61.98 57.60 55.55 52.56 52.12 51.92
76.60 76.38 76.24 76.02 75.62 76.34 64.43 64.80 66.59 74.61 75.73 76.21 76.12 77.12 75.60 74.78 71.89 71.61 63.58 63.54 63.71 63.85 66.35 75.40 73.13 72.98 71.32 71.05 72.95 70.80 70.93 69.56 65.62 63.41 66.73 62.08 66.75 61.75 60.53 54.98 52.03 51.52 51.03
76.95 76.01 75.60 76.16 75.95 75.29 62.17 61.05 61.82 72.79 75.32 75.96 75.77 75.39 74.72 74.05 72.88 72.59 71.61 67.27 65.16 63.81 68.23 72.40 72.40 69.93 69.56 69.90 71.88 71.51 70.54 67.05 64.89 61.45 64.85 64.50 60.20 64.57 62.76 58.43 52.25 51.38 50.72
73.94 75.05 74.41 74.70 74.18 74.22 61.53 60.21 63.29 72.12 73.69 73.43 73.76 74.40 73.06 72.73 64.06 62.20 69.09 62.69 58.63 57.03 55.50 56.17 55.87 55.64 55.89 57.13 60.97 68.35 68.06 66.47 64.59 60.93 58.34 60.78 58.51 59.46 63.57 62.93 57.58 51.64 51.58
65.44 65.20 68.21 70.66 61.70 71.03 58.32 57.74 61.08 71.05 70.96 70.50 68.63 66.98 56.46 64.78 56.56 58.71 67.37 64.86 58.51 58.80 60.42 62.30 62.25 61.01 61.52 58.75 57.71 62.01 61.89 61.04 61.09 57.53 56.20 58.83 57.48 57.62 57.54 62.04 60.14 57.60 56.92

GFSMA_sfc_wetblb_135.txt.gz
Wetbulb
76.25 76.00 75.15 77.18 77.16 74.50 74.38 75.11 75.21 75.61 74.87 74.57 74.77 73.11 72.07 72.21 72.64 72.73 72.54 73.88 73.27 73.61 74.41 75.05 75.54 75.99 76.35 76.92 77.83 78.60 79.06 79.21 79.24 78.99 78.68 77.61 77.40 77.31 77.09 76.50 75.74 75.67 75.98
75.49 74.70 75.06 75.07 74.84 76.69 75.77 75.56 77.13 75.26 73.91 73.93 74.06 73.20 73.23 73.16 74.02 74.39 73.71 73.40 74.71 74.69 75.18 75.52 75.93 76.16 75.63 75.74 76.86 78.24 79.18 79.18 79.11 78.92 78.25 77.16 77.22 77.29 77.06 76.68 76.17 75.93 76.17
77.08 76.81 75.61 72.90 75.17 76.23 77.09 76.41 76.66 75.73 73.48 73.15 73.95 73.95 73.29 73.75 74.24 74.79 74.85 74.88 74.45 75.88 76.20 75.43 75.60 76.41 75.01 76.03 77.42 79.08 79.23 79.04 79.38 78.65 78.11 77.43 77.34 77.42 77.45 77.15 76.78 76.43 76.02
77.15 78.45 74.86 76.53 75.90 76.68 75.35 75.17 74.89 73.47 72.74 72.45 72.98 73.32 73.58 74.16 74.92 75.12 74.85 75.35 75.59 75.45 76.11 76.28 76.28 76.03 75.40 76.18 77.20 77.70 78.81 79.05 78.80 78.75 78.24 77.91 77.62 77.52 77.58 77.29 76.92 76.32 76.17
77.53 78.54 78.94 76.12 77.96 75.12 76.09 76.43 74.62 74.38 72.75 71.85 72.40 72.93 73.40 73.74 74.75 74.00 75.04 75.77 76.18 76.29 76.81 75.62 76.68 75.89 76.01 76.02 75.98 76.88 78.49 78.92 78.69 78.58 78.54 78.38 78.04 77.69 77.31 77.45 76.77 76.17 75.97
76.98 77.99 75.90 76.46 78.63 77.20 74.88 77.20 75.86 75.59 73.42 72.25 70.76 72.12 73.06 73.97 75.01 74.39 74.79 75.16 76.41 76.88 76.82 78.05 78.61 78.25 77.87 76.46 75.56 76.80 77.79 78.48 78.93 79.12 78.83 78.36 78.11 77.86 77.18 76.75 76.55 75.97 75.17
77.35 78.45 75.84 76.66 75.51 75.97 78.44 77.03 75.97 75.79 73.70 75.24 72.59 71.63 72.66 73.79 73.52 73.63 74.62 74.65 76.04 75.94 76.43 77.39 78.02 79.14 77.99 77.32 76.81 77.13 76.81 77.02 77.85 78.85 78.54 77.68 77.18 76.88 76.53 76.35 76.12 75.77 74.89
76.82 77.05 78.60 76.55 76.42 76.31 78.28 77.99 77.84 75.01 74.02 74.20 73.62 70.45 68.24 70.31 71.91 72.98 74.29 74.81 75.96 76.20 76.75 76.95 77.34 78.98 79.24 79.08 77.66 76.51 76.30 76.16 77.21 78.53 78.41 77.68 77.33 77.05 76.75 76.47 76.25 75.50 74.97
76.63 77.44 77.52 77.75 78.13 78.29 76.39 78.28 77.62 78.37 73.87 74.34 77.35 73.48 70.32 68.46 70.36 72.93 74.71 74.32 76.09 75.39 76.04 76.29 76.41 77.55 78.25 77.98 79.44 77.88 75.54 75.47 76.42 76.98 77.01 76.75 76.60 76.70 77.31 77.20 76.27 75.32 75.32
76.66 76.93 77.20 76.93 77.72 77.66 76.06 78.06 77.12 78.42 78.61 74.29 73.54 73.34 76.40 75.44 70.26 68.35 73.63 74.26 75.14 75.19 75.91 75.66 75.96 76.93 77.72 77.18 77.73 74.97 74.88 74.37 74.51 74.97 74.92 74.74 74.67 74.99 76.17 77.71 77.04 75.85 75.54
77.18 76.52 77.26 77.25 77.08 75.69 78.31 78.70 77.94 78.52 77.46 75.75 73.64 73.88 75.15 73.01 74.82 70.93 68.62 69.95 73.48 75.18 75.27 75.64 76.17 76.28 77.12 77.63 77.14 75.53 74.10 72.69 72.02 72.15 72.77 73.68 74.54 74.55 76.12 77.31 76.69 76.22 74.82
75.58 77.27 77.20 77.81 77.88 76.88 77.36 77.37 78.23 77.84 78.83 78.31 76.87 75.84 73.31 72.21 72.42 71.46 70.44 72.66 71.94 73.06 75.47 75.96 76.32 76.00 76.42 77.54 76.82 73.30 71.07 69.84 69.30 69.79 70.63 72.30 74.16 75.77 76.21 75.74 75.47 75.18 74.17
73.61 77.65 77.65 77.67 77.03 77.97 77.45 78.51 78.83 78.13 77.33 77.33 78.60 76.30 75.67 74.65 74.74 73.87 72.35 71.57 70.78 73.80 73.60 74.75 76.49 77.55 76.80 75.57 77.16 74.17 68.74 67.59 67.08 67.34 68.03 69.08 70.45 71.48 72.19 72.73 72.99 72.85 72.75
75.00 78.14 77.65 77.22 77.16 78.09 77.36 78.03 77.23 76.32 78.80 76.51 77.65 78.76 76.42 75.28 75.29 75.21 73.53 72.33 70.08 70.58 69.55 67.79 75.61 74.90 77.27 76.73 76.23 75.34 68.97 66.39 65.54 65.12 65.48 66.01 66.63 67.38 68.29 69.12 69.54 70.00 70.01
74.68 77.34 77.16 77.05 77.31 77.62 77.81 78.06 76.18 77.34 77.19 77.68 76.97 77.81 76.92 75.60 75.26 74.98 74.77 74.04 71.90 68.50 68.99 73.94 72.53 77.30 75.98 75.17 77.42 73.57 69.16 64.59 63.62 62.83 62.97 63.58 63.69 63.84 64.43 64.54 65.10 65.70 66.56
77.24 75.93 76.38 77.59 77.42 77.49 78.00 78.57 77.58 78.32 77.46 75.92 75.01 78.64 78.13 76.42 76.19 75.22 74.63 74.22 73.48 71.21 68.01 70.59 70.58 76.18 77.32 74.84 76.69 73.73 67.95 64.94 61.91 61.30 61.20 61.35 61.40 61.72 62.14 62.31 62.83 63.51 64.52
77.17 77.01 77.39 77.36 76.86 77.05 77.91 77.97 78.62 77.18 76.43 77.31 77.35 77.15 77.40 78.65 75.32 74.88 74.79 73.60 72.43 71.98 69.76 71.45 73.66 78.09 77.61 76.83 76.82 74.68 72.38 67.13 61.51 60.82 59.92 59.46 59.43 59.55 59.76 59.71 59.70 59.96 60.45
77.02 77.21 77.47 77.48 77.06 76.76 77.33 77.13 76.33 76.20 76.42 75.87 76.03 77.15 76.10 75.26 79.10 78.92 74.23 77.42 74.75 76.34 73.36 75.32 75.71 75.20 76.44 77.52 76.98 77.72 73.45 67.06 62.51 60.24 60.16 59.07 58.47 57.59 57.17 56.89 56.54 56.29 56.13
77.68 76.06 76.88 76.86 76.73 76.80 77.27 77.18 77.18 76.50 76.86 76.86 76.34 77.37 76.25 76.86 77.83 75.92 77.26 75.97 75.20 74.18 76.54 73.25 72.94 75.12 74.35 75.75 77.05 76.75 74.70 68.89 66.51 60.52 60.03 59.63 58.73 57.45 56.68 56.14 55.11 54.30 53.78
77.43 77.25 77.01 77.85 77.77 77.16 77.00 76.91 77.46 77.46 77.14 76.37 76.82 77.10 76.84 74.99 77.58 77.74 76.65 77.61 76.68 75.75 75.05 75.54 73.68 76.67 71.68 76.38 76.46 75.95 71.72 72.57 68.18 67.54 65.16 62.33 59.29 58.56 57.65 55.83 55.17 53.83 53.10
77.60 77.63 77.34 78.40 78.11 77.10 76.39 77.82 77.54 77.10 77.46 76.19 77.34 77.17 76.72 75.90 70.06 72.34 76.79 77.63 77.71 77.42 76.16 74.17 73.65 72.65 71.97 75.34 72.24 75.51 74.22 70.79 72.32 71.82 68.77 62.28 62.88 61.72 57.86 55.85 54.52 53.47 52.43
77.77 77.55 76.76 76.92 76.63 75.91 68.97 71.67 73.61 76.69 78.01 77.54 75.66 77.01 78.22 72.23 71.39 67.73 68.15 66.81 69.84 76.82 75.55 71.71 70.76 71.35 73.23 70.84 71.84 72.20 72.72 72.70 68.31 69.70 69.60 67.98 66.50 61.28 56.32 54.09 52.12 51.91 51.78
77.95 77.50 76.63 76.43 76.63 77.13 66.73 67.62 68.76 74.77 74.93 75.87 76.66 77.13 76.16 76.94 73.50 75.46 64.97 64.06 64.85 64.75 66.86 74.42 74.68 72.79 73.30 73.82 74.44 73.10 72.68 72.21 69.08 65.06 67.24 64.58 66.11 62.84 58.68 53.66 51.92 51.96 51.59
77.68 73.64 76.85 76.75 77.22 75.87 64.40 64.30 64.04 73.83 75.18 75.84 76.30 76.23 76.21 76.16 75.27 74.38 72.86 72.51 67.70 65.06 64.36 68.54 69.48 66.58 71.49 70.28 73.79 73.50 72.66 69.27 67.01 62.80 65.64 63.50 62.43 62.63 63.19 56.86 52.82 52.23 51.50
76.62 75.29 74.23 74.40 75.74 74.90 61.64 61.01 64.54 72.87 73.73 75.07 75.16 74.46 71.55 74.88 66.38 64.27 73.38 69.62 63.60 61.60 56.31 56.18 56.46 56.83 57.07 57.86 61.35 68.48 68.83 67.07 66.40 62.33 60.39 61.16 59.96 58.91 63.23 59.47 55.72 52.70 52.17
74.92 74.38 73.08 74.17 63.98 68.84 58.34 58.06 62.68 70.62 72.32 73.95 72.20 71.96 57.49 59.16 59.69 60.02 70.62 67.26 62.42 59.36 59.24 58.01 60.29 58.49 60.52 58.56 58.05 61.16 60.22 60.85 61.21 60.54 55.99 59.63 57.41 59.03 57.24 63.45 60.01 54.62 54.64

GFSMA_sfc_wetblb_141.txt.gz
Wetbulb
70.96 70.36 71.15 71.52 71.72 72.32 71.78 70.24 70.99 70.90 70.20 70.22 70.55 68.58 66.94 67.20 66.93 68.30 69.65 75.75 76.21 76.63 76.43 76.56 76.99 77.33 77.65 77.70 77.61 78.48 78.60 78.22 77.59 77.73 77.70 77.17 76.96 76.89 76.97 76.98 76.88 76.66 76.60
70.69 71.82 72.01 69.76 70.71 71.49 71.55 71.09 70.25 71.81 69.91 68.96 69.05 68.02 67.62 67.98 67.76 68.05 68.55 71.61 76.24 76.44 77.01 77.39 78.17 78.11 77.69 76.45 77.86 78.90 78.59 78.23 78.14 78.16 77.89 77.23 77.01 77.04 77.30 77.34 76.87 76.49 76.10
70.68 71.57 69.88 70.54 71.55 73.01 72.02 71.35 71.20 71.94 68.92 70.03 68.35 69.32 68.98 69.20 69.92 68.85 68.80 68.90 72.02 76.72 77.14 77.56 77.82 77.70 77.20 76.26 78.06 78.48 77.84 77.80 77.97 78.14 77.97 78.03 77.93 77.60 77.04 76.99 76.70 76.14 76.00
73.61 71.47 72.09 69.81 69.80 73.15 72.63 71.54 72.03 70.34 67.95 67.68 67.46 68.57 68.23 69.90 70.08 70.15 70.27 69.98 69.69 71.06 74.71 77.52 77.33 77.16 77.02 77.04 77.64 77.86 77.89 77.85 77.95 78.42 78.24 78.14 77.86 77.74 77.56 76.83 76.50 76.05 75.57
73.42 71.78 71.73 68.14 71.71 71.95 71.12 72.91 71.38 70.21 66.93 67.55 68.86 68.73 68.75 68.90 69.67 71.96 70.61 70.24 71.23 71.41 71.91 74.47 76.47 77.04 77.81 77.81 77.94 77.78 78.05 77.84 77.83 77.96 77.71 77.69 77.38 76.95 76.88 76.33 75.95 75.67 75.52
72.02 72.30 71.36 66.83 70.01 70.46 68.43 69.02 71.14 71.61 68.79 69.91 71.13 69.31 69.13 69.29 69.81 69.89 69.48 72.01 71.66 72.64 72.47 72.64 73.69 75.12 75.97 75.39 74.91 78.39 78.52 78.34 78.19 78.14 77.58 77.02 76.92 77.00 76.25 75.95 75.42 75.49 75.33
73.06 71.56 71.72 66.26 66.75 65.69 65.06 68.35 68.88 70.80 71.31 70.97 69.81 66.80 67.77 68.67 66.78 65.97 65.55 68.24 69.17 71.20 73.28 74.58 75.26 74.86 74.10 76.07 72.39 77.28 77.29 77.54 77.63 77.31 76.72 75.96 75.90 76.15 76.39 75.50 75.02 75.28 74.87
71.09 73.28 69.31 65.61 63.93 63.53 67.86 67.26 71.38 72.27 70.81 71.10 67.98 68.89 64.46 66.19 65.72 68.05 65.70 67.45 67.12 68.70 71.45 73.68 75.24 74.72 73.53 68.95 75.44 76.18 75.49 75.82 76.17 76.32 76.35 76.18 75.38 75.80 76.29 74.99 75.05 74.65 74.37
73.34 73.51 71.78 70.64 69.70 69.30 68.88 66.66 69.24 66.92 65.02 66.45 71.24 67.65 64.17 59.34 62.23 64.88 65.67 66.21 65.71 66.80 68.66 71.55 74.45 75.24 73.96 74.17 75.17 74.16 73.47 74.01 74.92 76.00 77.08 77.38 76.49 76.89 75.69 75.25 74.76 74.13 73.98
73.35 74.12 72.47 71.46 70.03 67.37 66.88 66.74 70.96 64.04 63.42 67.78 71.40 71.26 68.15 63.34 59.89 58.83 65.32 65.85 67.10 66.55 67.21 70.19 70.26 75.43 73.72 73.50 74.02 72.97 72.53 72.50 73.22 74.36 75.27 76.18 76.80 76.70 76.37 75.61 74.65 74.04 73.57
72.34 74.13 73.12 71.12 69.60 67.09 66.56 69.06 71.93 71.15 71.19 69.35 71.26 70.14 67.47 65.52 65.67 65.03 62.13 65.02 67.06 68.36 68.47 69.44 68.41 72.65 74.32 72.70 70.08 71.26 71.48 71.02 71.35 72.13 73.03 73.62 74.37 74.64 74.44 74.32 73.53 73.35 72.75
71.96 73.88 73.78 72.71 71.55 70.32 69.78 70.29 72.39 73.01 72.07 67.38 73.44 72.80 71.10 69.22 65.11 66.20 65.52 63.46 64.67 66.81 68.07 67.60 70.62 71.33 72.11 70.56 71.45 71.13 70.16 69.35 69.34 69.62 70.32 71.27 71.94 72.75 73.19 73.20 73.30 73.18 72.59
70.22 70.72 73.40 72.80 73.18 72.48 72.86 73.20 73.25 73.00 72.95 72.05 72.44 72.92 73.17 72.40 70.87 69.46 67.30 67.04 65.25 66.90 66.00 66.59 67.35 71.54 73.30 68.78 68.27 68.51 68.18 67.29 66.98 67.19 67.60 68.46 69.19 69.75 69.97 70.55 70.82 71.14 71.27
70.43 71.76 73.45 73.57 73.77 74.12 73.57 72.38 73.19 73.06 73.00 72.78 72.04 73.21 72.55 72.66 71.99 70.35 69.16 65.90 64.50 65.03 64.91 65.49 68.24 67.35 72.41 67.75 67.44 66.98 65.05 65.60 65.16 65.23 65.57 65.78 66.04 66.45 66.89 67.24 67.33 67.81 68.15
72.53 75.42 74.92 73.83 73.70 73.46 74.10 72.80 71.92 72.03 72.49 72.51 72.76 72.41 72.99 72.66 72.56 71.72 71.24 70.13 67.85 63.76 64.16 66.76 66.95 69.30 72.60 70.08 66.00 62.73 62.88 64.85 64.34 64.06 64.11 64.24 64.08 64.30 64.21 64.46 64.52 64.57 65.36
73.42 73.04 71.61 72.14 73.53 73.65 73.87 73.55 72.24 72.33 72.41 72.27 72.63 71.52 70.95 71.92 72.73 70.55 70.67 69.77 69.95 68.15 63.05 67.59 68.82 73.33 72.17 69.09 65.51 62.01 62.85 63.46 63.53 63.12 62.83 62.57 61.96 61.61 61.37 61.35 61.35 61.94 62.48
72.58 72.09 71.75 70.98 72.22 72.87 72.68 73.19 71.64 72.99 71.69 71.67 71.69 71.07 71.90 71.84 72.20 70.53 70.98 70.37 69.46 68.53 66.40 69.07 72.04 72.67 69.49 65.75 62.43 61.20 60.40 59.29 60.93 62.26 61.67 60.82 60.17 59.76 59.13 58.15 57.90 58.17 58.47
72.83 73.06 72.56 70.26 70.98 72.64 72.43 72.23 72.37 72.38 71.85 71.24 71.09 71.27 71.77 74.08 71.78 71.87 71.44 71.07 70.89 69.84 68.53 66.55 68.53 70.28 69.90 66.25 65.07 61.71 61.07 59.13 58.73 61.33 60.41 59.50 58.74 58.03 57.45 56.58 55.24 54.87 55.27
72.81 73.30 72.64 72.38 72.27 72.77 72.80 72.99 73.41 73.24 72.87 73.02 72.84 71.62 71.66 71.63 71.32 71.36 71.40 71.23 71.28 71.03 70.52 69.26 68.68 69.74 70.08 70.00 69.28 64.08 59.61 56.72 57.48 59.17 58.69 57.64 56.88 56.14 55.26 54.78 54.49 53.80 53.27
73.02 73.21 73.20 73.16 73.57 73.20 73.43 73.36 73.73 73.28 73.14 73.35 73.09 72.70 72.51 72.49 72.48 71.91 71.29 70.29 71.04 70.41 70.29 69.93 68.58 67.89 68.97 69.67 68.00 66.31 60.03 59.39 56.04 58.11 57.98 57.26 56.63 56.32 55.50 55.18 53.93 53.48 53.29
72.90 73.12 72.94 72.88 73.54 74.37 74.50 72.63 73.64 73.32 72.84 72.73 73.20 73.21 72.75 70.78 69.93 69.83 71.67 70.82 70.30 69.54 69.55 68.86 68.05 67.71 67.33 69.06 67.50 68.00 64.25 62.72 59.36 58.04 54.86 55.27 53.92 51.09 50.92 53.60 54.06 53.72 53.21
72.65 72.61 72.84 72.71 72.20 73.87 71.20 70.26 70.45 71.79 72.88 72.62 71.74 71.94 72.22 70.80 69.22 68.87 68.56 67.64 69.47 69.92 69.12 69.33 67.73 67.28 66.57 67.57 68.72 68.36 67.39 66.10 62.88 59.52 53.59 53.53 54.28 48.23 48.41 48.51 54.29 53.86 53.29
72.04 72.20 72.48 72.64 72.81 72.95 67.38 68.63 70.49 71.65 71.86 71.94 71.91 72.17 72.36 73.78 71.38 68.07 65.94 65.28 64.81 64.19 66.01 67.10 67.28 66.83 67.51 66.31 68.00 68.51 68.36 67.17 65.89 63.34 64.96 56.59 51.93 49.02 48.68 51.64 54.52 54.38 53.53
71.02 71.28 72.09 71.41 71.05 70.31 65.93 66.34 67.97 69.23 71.03 71.01 71.20 70.76 70.93 71.07 69.71 70.95 67.31 66.39 56.46 55.36 58.76 64.19 61.80 58.75 59.43 60.61 65.30 67.17 68.24 63.55 58.64 59.50 60.01 58.60 52.58 49.95 50.29 49.03 54.61 54.23 53.27
69.30 69.75 70.41 69.84 70.13 67.01 62.68 63.22 65.18 68.72 69.98 69.82 67.49 61.37 66.07 64.94 62.34 65.10 67.89 61.86 57.00 55.19 57.38 56.93 56.65 56.01 56.23 57.28 58.33 63.64 59.98 61.02 59.48 54.57 51.56 57.76 56.98 53.59 51.92 50.58 51.18 54.77 52.93
68.79 68.41 65.81 65.13 63.77 62.41 58.74 58.76 60.23 66.84 67.13 67.62 60.70 57.86 59.04 60.56 59.13 61.13 66.47 61.96 56.50 54.97 56.40 51.95 50.18 52.64 53.33 52.77 55.29 53.51 54.95 54.55 55.15 51.98 50.78 54.65 52.59 53.76 54.31 54.27 49.80 50.12 50.45

GFSMA_sfc_wetblb_144.txt.gz
Wetbulb
68.69 68.84 69.68 70.05 70.93 70.81 70.76 71.09 71.28 71.38 71.87 71.86 71.66 71.77 66.59 66.15 66.22 67.48 68.89 75.58 76.20 76.38 76.51 76.84 77.17 77.21 77.06 77.83 77.30 77.76 77.51 77.53 77.68 77.55 77.33 76.92 76.49 76.38 76.57 76.71 76.56 76.16 75.69
70.07 69.78 69.39 68.85 68.93 70.01 70.54 70.72 70.22 70.16 68.29 67.81 66.77 65.94 66.62 66.39 66.44 66.60 67.73 69.71 76.47 76.53 76.89 76.61 77.39 78.12 77.67 77.51 77.62 78.07 77.68 77.76 77.64 77.80 77.64 77.50 77.17 76.86 76.63 76.71 76.34 75.45 75.42
70.26 70.85 68.93 67.90 69.15 71.43 71.43 70.36 69.48 70.43 70.85 68.29 67.38 66.74 66.97 66.88 67.10 67.29 67.54 67.69 70.35 76.07 77.27 77.64 77.90 77.71 77.53 75.92 77.67 77.98 77.77 77.50 77.90 78.19 77.92 77.69 77.74 77.72 77.28 76.65 76.27 75.62 75.03
70.42 70.61 69.54 70.92 71.83 71.19 71.24 71.21 70.35 69.15 66.85 66.19 65.76 67.40 66.47 67.79 68.31 67.85 68.25 68.30 69.92 71.40 72.39 75.56 77.47 76.68 77.26 78.64 77.84 77.99 78.11 77.58 77.79 77.89 77.74 77.49 77.19 76.99 76.91 76.21 75.80 75.40 74.98
72.12 69.87 67.90 68.41 71.14 69.23 69.28 69.24 69.83 69.51 68.03 66.04 66.40 67.23 66.74 67.42 68.45 70.57 69.12 70.15 71.01 71.69 71.40 73.16 75.53 76.25 77.25 76.90 77.16 78.78 78.44 77.64 77.72 77.69 77.29 76.81 76.76 76.83 76.23 75.90 75.63 75.00 74.57
72.21 69.84 67.08 67.88 69.29 66.94 68.13 68.65 67.79 69.83 66.27 66.15 69.32 68.83 67.22 67.89 66.77 66.07 66.78 68.80 69.54 70.73 72.76 72.34 73.27 74.89 76.79 76.47 76.51 77.32 77.72 77.48 77.54 76.58 75.83 75.62 75.84 76.64 76.00 75.50 75.36 74.50 73.77
70.70 69.61 68.13 65.74 66.37 65.43 68.11 67.86 69.49 70.82 70.12 68.65 67.36 66.19 66.48 66.10 65.69 65.09 66.07 66.59 68.52 71.19 71.92 72.79 73.59 74.06 73.65 75.37 74.17 76.76 76.73 76.52 76.35 76.63 76.37 75.23 75.13 76.36 75.29 74.70 74.79 73.81 73.35
71.01 72.41 66.73 64.13 64.32 64.90 69.02 67.39 67.68 69.32 67.74 69.86 67.68 67.19 63.51 64.58 64.61 64.98 66.05 67.71 66.22 69.98 71.62 74.06 73.86 74.13 72.74 68.76 75.02 75.10 74.89 75.60 76.71 77.25 77.04 76.21 76.40 75.69 75.05 74.26 74.02 73.97 73.79
72.91 71.83 69.40 67.79 65.65 68.54 67.81 66.83 69.02 65.16 63.72 67.43 69.96 67.59 63.13 60.98 60.92 63.64 65.94 67.42 66.63 67.69 69.72 71.09 72.97 73.75 73.11 72.70 73.06 72.90 73.40 74.64 75.90 76.22 76.93 76.52 76.04 75.60 74.95 74.41 73.88 73.58 73.30
72.31 72.58 71.32 69.89 67.97 65.76 66.40 67.73 68.98 62.95 66.30 68.10 70.13 66.42 64.66 62.77 60.08 57.72 63.86 66.94 67.97 66.65 67.43 70.54 69.95 70.77 72.99 72.78 72.79 72.34 72.39 73.59 74.41 74.78 75.19 75.85 75.50 74.88 74.55 73.73 73.54 72.90 72.98
71.60 72.39 70.83 70.10 68.28 65.56 66.15 65.89 70.71 69.98 68.82 68.22 69.86 68.53 64.50 64.68 64.94 62.37 58.07 64.39 67.92 67.61 67.37 68.42 68.40 69.78 72.78 71.48 69.81 70.67 71.39 71.66 72.30 72.98 73.42 73.53 74.08 74.20 73.71 73.55 73.18 72.78 72.34
70.09 71.72 71.84 70.13 68.99 66.73 65.56 65.26 70.38 71.59 68.49 63.49 69.07 71.39 69.66 66.57 65.01 62.92 61.20 63.70 63.39 66.23 68.11 67.68 67.49 69.54 71.40 70.25 71.13 70.52 70.10 69.91 70.03 70.36 70.53 70.86 71.74 72.33 73.13 73.36 73.17 72.72 72.44
69.39 70.48 71.78 71.06 70.89 71.17 72.13 71.96 72.15 72.21 71.68 70.98 70.78 71.13 71.93 71.20 68.79 67.44 66.88 64.55 63.49 65.27 66.30 66.38 66.77 70.84 71.18 68.36 67.82 68.30 68.42 67.85 67.81 68.04 68.30 68.58 68.91 69.14 69.62 69.88 70.02 70.38 70.74
69.84 70.69 71.38 71.63 71.72 72.07 72.07 71.51 71.74 71.31 71.98 71.33 70.98 71.20 71.31 70.73 70.43 68.96 67.46 65.25 63.54 64.46 64.30 64.41 66.86 68.25 68.36 67.17 66.72 67.18 65.50 66.16 65.83 66.03 66.12 66.20 66.17 66.52 66.62 66.39 66.63 67.12 67.42
70.78 71.46 71.36 72.49 72.35 72.43 72.61 70.78 70.47 70.58 71.20 70.90 71.15 71.29 70.65 71.77 71.39 70.24 69.36 68.06 68.02 62.41 62.65 65.10 66.77 67.95 67.26 66.94 66.43 62.85 63.05 64.96 64.72 64.64 64.63 64.30 63.99 64.19 64.23 64.44 64.22 64.23 64.62
71.17 72.30 72.48 72.41 72.27 71.97 71.99 71.99 71.15 70.89 71.11 70.99 71.27 70.48 69.75 69.89 71.05 69.96 69.26 68.59 68.27 65.63 62.60 66.02 67.17 70.98 69.76 66.71 65.08 62.90 63.12 64.06 64.06 63.64 62.92 62.48 61.94 61.74 61.46 61.13 61.44 61.68 62.22
71.76 71.76 70.88 70.95 71.85 72.13 72.28 72.12 71.29 70.88 71.36 69.97 71.08 70.07 69.91 70.99 70.09 69.83 69.49 69.66 69.38 67.57 64.74 67.72 70.74 69.85 66.23 63.58 62.55 62.06 61.00 60.33 61.60 62.42 61.65 61.13 60.35 59.54 58.88 58.60 58.37 58.39 58.81
71.32 71.12 71.18 70.20 70.33 71.39 71.34 71.16 71.32 71.40 70.62 70.18 69.79 69.86 69.93 72.33 71.01 70.72 69.63 69.75 69.76 69.03 66.23 64.94 67.53 69.04 66.38 63.38 61.50 60.87 59.80 60.56 60.37 61.29 60.61 59.86 59.17 58.46 57.10 56.00 55.71 55.67 55.84
69.60 71.96 71.15 70.21 69.45 70.49 71.25 71.40 71.38 71.42 71.31 71.46 71.63 70.92 70.81 70.64 69.57 70.07 70.34 70.10 69.57 70.51 69.20 67.95 66.63 67.96 68.20 64.72 62.20 61.94 58.38 56.04 59.10 59.91 58.66 57.68 56.88 56.54 55.87 54.65 53.98 53.50 53.88
71.44 71.36 71.69 71.30 71.07 71.34 71.97 72.16 72.15 72.22 71.50 72.24 72.34 72.12 71.52 71.06 70.62 70.49 71.18 69.62 69.93 69.21 68.97 68.18 67.24 66.40 67.41 67.48 65.30 58.80 57.28 57.59 55.06 57.09 57.24 56.38 55.90 55.40 54.50 54.28 54.12 53.28 53.07
71.93 71.88 71.71 71.92 72.43 72.75 72.90 71.87 72.30 71.98 71.64 71.62 72.26 72.54 72.52 72.23 70.53 69.98 71.16 69.43 69.25 68.61 68.43 67.78 67.06 66.58 65.99 67.89 66.15 64.06 59.58 58.00 56.31 57.36 54.64 54.87 53.35 52.10 51.85 53.27 53.72 53.99 53.44
71.40 71.53 71.31 71.34 71.19 72.76 69.63 68.34 71.21 71.50 71.79 71.40 70.92 71.15 71.69 70.31 68.95 67.62 67.77 67.48 68.99 68.83 66.90 68.48 66.99 66.25 65.67 66.41 67.62 66.75 62.38 59.35 59.15 58.57 54.17 53.07 51.36 48.85 49.47 49.67 53.55 53.35 53.48
70.19 70.11 70.91 71.15 71.07 71.28 66.99 67.01 69.49 70.10 70.36 70.55 70.98 70.65 70.45 73.26 69.82 67.62 65.85 63.92 61.74 62.28 64.97 67.01 67.57 66.65 67.06 66.52 65.97 66.40 66.35 65.14 64.27 58.66 54.94 52.84 50.84 48.02 49.94 51.33 54.75 54.06 54.14
70.04 69.58 70.07 70.74 70.72 70.72 64.03 64.32 67.01 68.83 69.43 70.01 70.64 70.64 70.37 70.37 69.37 68.14 65.41 59.49 55.83 57.30 60.48 61.08 59.46 55.80 56.04 56.56 61.31 65.07 66.33 62.38 56.26 55.15 60.27 51.96 50.38 48.47 49.20 50.38 54.56 54.38 54.15
68.47 68.81 69.15 68.99 68.95 63.04 60.32 59.96 63.58 68.54 69.49 68.70 67.15 64.02 67.64 67.17 62.35 64.21 65.72 55.50 54.24 52.65 55.45 56.12 55.80 55.23 55.41 56.15 57.22 62.66 59.82 58.18 54.24 53.05 54.11 55.89 52.25 51.17 49.93 49.64 51.63 54.87 53.48
67.86 66.46 65.37 65.33 62.32 60.56 58.61 57.63 61.09 65.17 66.08 65.99 60.30 59.54 59.35 62.23 60.03 60.59 64.15 56.81 53.05 52.90 52.19 51.14 51.06 51.39 51.20 52.68 54.69 52.71 53.55 57.28 52.18 50.33 52.12 53.47 55.05 53.80 50.98 51.15 50.38 50.86 50.58

GFSMA_sfc_wetblb_147.txt.gz
Wetbulb
69.16 68.08 68.79 68.99 69.63 70.06 69.82 69.88 70.42 70.70 70.97 71.24 71.07 71.09 70.24 65.94 65.77 66.30 67.27 72.74 76.01 75.85 75.69 76.63 76.94 77.40 77.47 77.93 77.55 77.15 77.31 76.77 77.00 77.14 77.58 77.52 77.32 76.90 76.52 76.65 75.67 75.80 75.55
68.32 69.52 68.38 68.49 69.00 69.49 69.60 69.72 69.52 69.19 68.67 67.46 65.78 68.54 68.69 65.77 66.19 66.49 66.78 68.01 73.37 76.88 76.25 76.06 76.60 77.14 77.32 77.24 77.15 77.55 77.31 77.51 77.28 77.79 77.52 76.95 77.35 76.97 76.31 76.58 75.80 75.11 74.93
70.53 69.05 68.80 67.70 69.11 70.84 70.42 69.45 69.16 69.50 69.39 67.42 65.30 65.35 66.35 65.70 66.13 66.42 67.97 68.18 68.97 72.08 73.09 75.34 77.81 77.99 77.61 76.44 77.28 77.68 77.72 77.49 77.95 77.55 77.48 77.28 77.20 77.10 76.97 76.32 75.35 75.06 74.77
70.75 69.14 69.89 70.69 70.96 69.97 70.22 70.18 69.31 68.40 66.03 65.28 64.43 65.16 65.23 66.28 67.41 67.33 68.06 68.69 69.42 70.57 71.39 71.91 73.38 77.00 77.10 77.13 76.69 78.06 77.76 77.57 77.53 77.30 76.74 76.80 76.80 76.34 76.32 75.92 75.21 74.76 74.46
70.95 69.08 67.96 69.25 69.12 67.90 67.70 68.30 68.78 69.01 67.93 65.98 65.12 65.81 65.68 67.22 67.27 68.62 68.71 69.29 71.29 71.72 71.83 73.32 75.69 76.17 76.72 76.51 77.31 77.30 77.22 77.60 77.55 76.74 76.22 75.76 76.01 76.14 75.89 75.51 74.76 74.31 73.34
70.34 67.59 67.13 67.96 67.98 66.69 68.21 68.63 69.14 69.31 66.28 65.72 67.97 66.82 66.49 65.77 65.41 65.98 66.98 69.14 70.36 71.83 72.56 72.38 72.23 73.83 75.36 75.71 75.28 77.14 76.56 76.82 76.67 76.72 76.31 75.15 75.53 76.03 75.56 75.20 74.23 73.58 72.97
70.61 69.25 65.91 65.72 65.82 67.20 67.62 68.80 69.92 69.95 68.90 67.94 65.41 64.88 64.88 65.26 64.32 64.96 66.01 66.92 69.47 70.95 72.16 73.30 72.78 72.22 72.58 71.32 75.61 75.72 76.06 76.39 76.72 77.02 75.58 75.14 76.53 75.45 74.78 74.42 74.07 73.45 73.11
68.89 69.57 66.00 63.31 64.59 66.81 67.59 68.81 66.95 68.64 66.43 68.19 66.74 64.91 61.93 63.72 63.26 64.71 65.52 67.01 67.26 69.59 72.95 73.68 73.27 72.45 71.88 70.21 74.39 74.74 74.93 76.06 76.10 76.67 76.61 76.10 75.52 74.96 74.18 74.03 73.85 73.55 73.21
70.16 71.33 67.58 64.25 63.92 66.74 66.96 67.94 65.97 65.52 65.49 68.81 68.48 65.69 61.31 60.60 60.13 64.15 64.69 66.76 66.78 67.53 68.58 72.67 73.42 72.29 71.16 72.49 71.95 72.05 73.70 74.36 75.72 75.68 75.74 75.41 75.09 74.45 73.88 73.53 73.25 72.91 73.10
71.80 71.30 69.92 68.37 66.58 66.72 66.51 69.38 65.18 64.90 67.74 67.42 67.88 65.55 64.25 62.52 60.22 58.71 62.14 66.05 67.50 66.52 66.50 69.01 69.04 70.35 72.85 71.49 71.74 72.28 72.31 73.13 74.18 74.23 75.06 74.62 74.36 74.19 73.99 73.38 72.92 72.81 72.73
71.43 72.06 70.49 69.02 66.88 65.17 65.19 68.22 69.68 68.55 68.08 67.18 68.65 65.78 63.99 64.33 63.49 60.50 57.68 60.96 66.58 67.05 66.74 67.01 68.11 71.77 72.06 69.99 68.89 70.71 71.09 71.66 72.61 72.52 72.97 73.52 74.29 74.41 74.02 73.62 73.06 72.76 72.74
69.87 71.13 70.78 69.14 68.38 64.95 65.48 64.96 68.94 70.58 67.67 63.24 68.19 70.04 66.38 65.74 64.83 62.42 60.06 62.07 62.75 65.14 67.59 67.61 67.13 69.32 70.91 69.66 71.22 70.96 69.87 69.48 69.71 70.29 70.87 71.56 72.02 72.39 72.40 72.20 72.15 71.86 71.70
68.46 68.99 70.91 69.59 68.84 68.46 67.82 67.40 70.31 70.67 70.94 69.93 69.86 70.06 71.01 70.07 67.37 66.20 65.53 63.87 63.05 64.86 65.55 65.58 66.40 68.69 70.70 68.40 68.17 68.81 68.34 67.95 67.98 68.36 68.60 68.79 68.83 68.99 68.91 68.98 69.31 69.69 69.82
68.82 69.23 70.86 70.93 70.52 71.07 71.34 70.93 71.04 70.86 71.32 70.84 70.23 69.84 70.64 70.62 70.21 68.62 66.92 65.22 63.19 63.94 64.20 64.14 65.91 69.15 67.88 67.07 67.17 67.54 65.71 66.20 66.02 66.29 66.38 66.87 66.59 66.76 66.36 66.28 66.28 66.60 67.25
69.71 69.76 69.87 70.93 71.06 71.29 71.23 70.33 70.18 70.03 70.52 70.11 69.78 70.28 69.34 70.62 70.60 69.72 68.67 67.39 66.16 61.80 61.89 64.16 65.14 66.38 66.80 66.32 66.83 63.56 63.43 65.07 64.98 64.81 64.58 64.56 64.60 64.69 64.43 64.20 64.13 64.10 64.38
69.88 69.80 70.44 70.61 70.99 71.25 71.51 71.00 69.76 69.44 69.37 70.04 70.00 70.21 69.42 68.82 69.81 69.46 68.47 67.39 67.43 64.87 62.11 64.94 65.71 67.77 67.27 65.71 65.67 62.90 63.41 64.36 64.17 63.51 62.76 62.85 62.28 61.97 61.67 61.60 61.78 62.02 62.36
70.56 70.43 70.74 71.10 70.91 70.94 70.88 70.63 70.72 70.53 70.19 69.59 69.97 70.02 69.56 69.29 69.70 69.45 68.86 68.55 68.24 66.70 64.34 65.91 69.28 67.25 64.71 64.04 64.04 62.48 61.92 61.04 61.50 62.06 61.43 60.83 60.11 59.73 59.36 58.98 58.87 59.36 59.92
70.24 70.72 70.65 69.19 69.85 71.08 70.01 70.84 70.56 71.33 70.22 70.09 69.43 68.58 68.81 70.63 69.51 69.73 69.52 68.48 68.87 68.35 66.16 64.12 66.92 66.97 64.55 62.44 62.09 59.94 61.49 61.21 60.22 61.08 60.51 59.60 58.79 57.38 56.49 56.18 56.11 56.67 57.45
69.14 70.42 70.17 69.53 69.25 69.45 70.04 69.88 69.76 69.72 70.28 69.93 70.09 69.93 69.60 69.72 69.22 69.00 68.89 68.94 68.72 69.51 67.88 66.27 65.93 67.59 65.89 61.82 59.93 60.11 56.98 56.86 59.70 60.20 58.65 57.49 57.14 56.31 54.90 54.42 53.98 54.12 54.74
68.79 68.88 70.80 70.34 69.94 69.56 69.66 70.62 70.69 70.72 70.79 71.14 71.39 71.42 71.06 70.32 69.64 69.55 69.36 68.85 68.67 68.51 67.97 67.43 66.35 65.99 66.34 63.26 60.39 57.55 55.46 55.73 55.76 57.00 56.41 55.91 55.24 54.85 54.59 54.31 53.52 53.44 53.26
70.10 69.96 70.20 70.85 70.42 70.77 71.05 70.48 71.20 71.07 70.24 70.64 71.35 71.65 71.87 71.74 70.49 69.74 70.38 69.42 68.18 67.72 67.41 66.98 66.33 65.49 65.37 65.07 62.07 59.11 56.12 55.18 53.97 56.49 53.89 54.77 54.59 52.93 52.91 53.53 54.03 53.67 53.36
70.28 70.54 70.37 70.71 70.78 71.99 68.95 68.13 70.58 70.78 71.30 70.90 70.51 69.66 71.38 71.11 69.68 67.25 66.93 67.55 68.96 67.77 66.55 66.39 66.28 65.89 66.21 66.48 66.52 63.21 58.79 54.86 53.58 56.40 53.94 54.79 53.73 50.14 49.81 48.73 52.97 53.90 53.79
68.76 69.68 70.15 69.86 70.32 70.39 66.11 66.16 67.57 70.22 70.17 69.52 69.70 70.61 70.78 72.35 69.55 68.85 65.41 63.10 61.92 62.04 65.35 66.89 66.62 66.17 65.61 66.03 66.03 66.79 62.97 59.30 58.46 56.82 53.67 52.02 51.57 48.60 50.00 51.63 54.89 53.89 53.86
68.69 69.23 69.45 69.93 69.93 69.35 64.25 63.98 65.59 69.16 68.96 69.23 69.73 69.91 69.66 69.83 69.46 67.90 64.56 61.18 58.37 57.63 59.12 61.82 61.39 56.80 55.90 56.04 59.18 64.72 66.12 63.70 57.80 56.80 57.63 51.89 50.76 48.73 49.89 51.37 54.27 54.35 53.47
67.30 67.68 68.36 68.87 68.63 67.04 59.34 61.35 64.67 68.02 68.18 68.42 68.85 66.06 64.64 68.27 65.33 63.35 65.51 58.53 54.59 52.36 55.62 56.09 55.73 55.55 56.04 56.85 57.30 60.96 61.30 60.38 57.00 54.54 56.64 54.04 50.35 48.70 49.23 49.40 51.75 54.15 52.73
65.94 67.43 65.95 65.53 62.92 62.29 58.57 59.16 62.98 66.39 66.48 66.39 61.51 60.01 59.02 59.07 58.99 59.36 65.16 58.74 54.89 51.53 51.19 50.35 49.95 50.94 52.74 53.36 55.71 53.89 54.52 59.72 54.31 51.89 53.95 54.51 52.82 53.03 50.18 51.99 51.42 51.81 51.70